Time,TemperatureF,DewpointF,PressureIn,WindDirection,WindDirectionDegrees,WindSpeedMPH,WindSpeedGustMPH,Humidity,HourlyPrecipIn,Conditions,Clouds,dailyrainin,SoftwareType,DateUTC
2013-10-07 00:01:00,64.8,40.5,30.03,NNW,347,2.0,2.0,41,0.00,,,0.39,Wunderground v.1.15,2013-10-07 05:01:00,
2013-10-07 00:02:00,64.8,40.5,30.03,NNW,347,2.0,2.0,41,0.00,,,0.39,Wunderground v.1.15,2013-10-07 05:02:00,
2013-10-07 00:03:00,64.8,40.5,30.03,NNW,346,2.0,2.0,41,0.00,,,0.00,Wunderground v.1.15,2013-10-07 05:03:00,
2013-10-07 00:05:00,64.8,40.5,30.03,NNW,347,2.0,2.0,41,0.00,,,0.00,Wunderground v.1.15,2013-10-07 05:05:00,
2013-10-07 00:06:00,64.7,40.4,30.03,NNW,347,2.0,2.0,41,0.00,,,0.00,Wunderground v.1.15,2013-10-07 05:06:00,
2013-10-07 00:07:00,64.7,40.4,30.03,NNW,347,2.0,2.0,41,0.00,,,0.00,Wunderground v.1.15,2013-10-07 05:07:00,
2013-10-07 00:11:00,64.5,40.3,30.03,NNW,344,1.0,2.0,41,0.00,,,0.00,Wunderground v.1.15,2013-10-07 05:11:00,
2013-10-07 00:12:00,64.5,40.3,30.03,NNW,344,1.0,2.0,41,0.00,,,0.00,Wunderground v.1.15,2013-10-07 05:12:00,
2013-10-07 00:13:00,64.5,40.3,30.03,NNW,344,1.0,2.0,41,0.00,,,0.00,Wunderground v.1.15,2013-10-07 05:13:00,
2013-10-07 00:14:00,64.5,40.3,30.03,NNW,344,1.0,2.0,41,0.00,,,0.00,Wunderground v.1.15,2013-10-07 05:14:00,
2013-10-07 00:15:00,64.5,40.9,30.03,NNW,344,1.0,2.0,42,0.00,,,0.00,Wunderground v.1.15,2013-10-07 05:15:00,
2013-10-07 00:17:00,64.3,40.7,30.03,NNW,344,1.0,2.0,42,0.00,,,0.00,Wunderground v.1.15,2013-10-07 05:17:00,
2013-10-07 00:21:00,64.2,40.6,30.03,NNW,344,1.0,2.0,42,0.00,,,0.00,Wunderground v.1.15,2013-10-07 05:21:00,
2013-10-07 00:22:00,64.2,40.6,30.03,NNW,344,1.0,2.0,42,0.00,,,0.00,Wunderground v.1.15,2013-10-07 05:22:00,
2013-10-07 00:23:00,64.0,40.4,30.03,NNW,344,1.0,2.0,42,0.00,,,0.00,Wunderground v.1.15,2013-10-07 05:23:00,
2013-10-07 00:24:00,64.0,40.4,30.03,NNW,344,1.0,2.0,42,0.00,,,0.00,Wunderground v.1.15,2013-10-07 05:24:00,
2013-10-07 00:26:00,63.9,40.3,30.03,NNW,346,1.0,4.0,42,0.00,,,0.00,Wunderground v.1.15,2013-10-07 05:26:00,
2013-10-07 00:28:00,63.9,40.3,30.03,NNW,343,1.0,4.0,42,0.00,,,0.00,Wunderground v.1.15,2013-10-07 05:28:00,
2013-10-07 00:32:00,63.7,40.8,30.03,NNW,343,1.0,1.0,43,0.00,,,0.00,Wunderground v.1.15,2013-10-07 05:32:00,
2013-10-07 00:33:00,63.7,41.4,30.03,NNW,343,1.0,1.0,44,0.00,,,0.00,Wunderground v.1.15,2013-10-07 05:33:00,
2013-10-07 00:34:00,63.5,41.2,30.03,NNW,343,1.0,1.0,44,0.00,,,0.00,Wunderground v.1.15,2013-10-07 05:34:00,
2013-10-07 00:35:00,63.5,41.2,30.03,NNW,343,1.0,2.0,44,0.00,,,0.00,Wunderground v.1.15,2013-10-07 05:35:00,
2013-10-07 00:36:00,63.5,41.2,30.03,NNW,343,1.0,2.0,44,0.00,,,0.00,Wunderground v.1.15,2013-10-07 05:36:00,
2013-10-07 00:38:00,63.4,41.7,30.03,NNW,343,1.0,2.0,45,0.00,,,0.00,Wunderground v.1.15,2013-10-07 05:38:00,
2013-10-07 00:42:00,63.2,41.5,30.03,NNW,343,1.0,2.0,45,0.00,,,0.00,Wunderground v.1.15,2013-10-07 05:42:00,
2013-10-07 00:46:00,62.9,41.8,30.03,NNW,343,1.0,2.0,46,0.00,,,0.00,Wunderground v.1.15,2013-10-07 05:46:00,
2013-10-07 00:47:00,62.9,41.8,30.03,NNW,343,1.0,2.0,46,0.00,,,0.00,Wunderground v.1.15,2013-10-07 05:47:00,
2013-10-07 00:48:00,62.9,41.8,30.03,NNW,343,1.0,2.0,46,0.00,,,0.00,Wunderground v.1.15,2013-10-07 05:48:00,
2013-10-07 00:51:00,62.7,41.6,30.03,NNW,343,1.0,2.0,46,0.00,,,0.00,Wunderground v.1.15,2013-10-07 05:51:00,
2013-10-07 00:52:00,62.6,41.5,30.03,NNW,343,1.0,2.0,46,0.00,,,0.00,Wunderground v.1.15,2013-10-07 05:52:00,
2013-10-07 00:53:00,62.6,41.5,30.03,NNW,343,1.0,2.0,46,0.00,,,0.00,Wunderground v.1.15,2013-10-07 05:53:00,
2013-10-07 00:55:00,62.6,41.5,30.03,NNW,343,1.0,2.0,46,0.00,,,0.00,Wunderground v.1.15,2013-10-07 05:55:00,
2013-10-07 00:58:00,62.4,41.9,30.03,NNW,343,1.0,2.0,47,0.00,,,0.00,Wunderground v.1.15,2013-10-07 05:58:00,
2013-10-07 01:01:00,62.3,41.8,30.03,NNW,343,1.0,2.0,47,0.00,,,0.00,Wunderground v.1.15,2013-10-07 06:01:00,
2013-10-07 01:02:00,62.3,41.8,30.03,NNW,343,1.0,2.0,47,0.00,,,0.00,Wunderground v.1.15,2013-10-07 06:02:00,
2013-10-07 01:04:00,62.1,41.6,30.03,NNW,344,1.0,2.0,47,0.00,,,0.00,Wunderground v.1.15,2013-10-07 06:04:00,
2013-10-07 01:07:00,62.1,41.6,30.03,NNW,344,1.0,2.0,47,0.00,,,0.00,Wunderground v.1.15,2013-10-07 06:07:00,
2013-10-07 01:11:00,62.0,41.5,30.03,NNW,343,1.0,1.0,47,0.00,,,0.00,Wunderground v.1.15,2013-10-07 06:11:00,
2013-10-07 01:12:00,62.0,41.5,30.03,NNW,343,1.0,1.0,47,0.00,,,0.00,Wunderground v.1.15,2013-10-07 06:12:00,
2013-10-07 01:14:00,62.0,41.5,30.03,NNW,343,0.0,1.0,47,0.00,,,0.00,Wunderground v.1.15,2013-10-07 06:14:00,
2013-10-07 01:16:00,61.8,41.3,30.03,NNW,343,0.0,2.0,47,0.00,,,0.00,Wunderground v.1.15,2013-10-07 06:16:00,
2013-10-07 01:17:00,61.8,41.3,30.03,NNW,343,0.0,2.0,47,0.00,,,0.00,Wunderground v.1.15,2013-10-07 06:17:00,
2013-10-07 01:21:00,61.8,41.9,30.03,NNW,343,0.0,0.0,48,0.00,,,0.00,Wunderground v.1.15,2013-10-07 06:21:00,
2013-10-07 01:23:00,61.8,41.9,30.03,NNW,343,0.0,0.0,48,0.00,,,0.00,Wunderground v.1.15,2013-10-07 06:23:00,
2013-10-07 01:24:00,61.6,41.7,30.03,NNW,343,0.0,0.0,48,0.00,,,0.00,Wunderground v.1.15,2013-10-07 06:24:00,
2013-10-07 01:26:00,61.6,41.7,30.03,NNW,343,0.0,0.0,48,0.00,,,0.00,Wunderground v.1.15,2013-10-07 06:26:00,
2013-10-07 01:27:00,61.6,41.7,30.03,NNW,343,0.0,0.0,48,0.00,,,0.00,Wunderground v.1.15,2013-10-07 06:27:00,
2013-10-07 01:28:00,61.6,41.7,30.03,NNW,343,0.0,0.0,48,0.00,,,0.00,Wunderground v.1.15,2013-10-07 06:28:00,
2013-10-07 01:33:00,61.5,41.6,30.02,NNW,343,0.0,0.0,48,0.00,,,0.00,Wunderground v.1.15,2013-10-07 06:33:00,
2013-10-07 01:34:00,61.5,41.6,30.02,NNW,343,1.0,1.0,48,0.00,,,0.00,Wunderground v.1.15,2013-10-07 06:34:00,
2013-10-07 01:35:00,61.5,41.6,30.02,NNW,343,1.0,1.0,48,0.00,,,0.00,Wunderground v.1.15,2013-10-07 06:35:00,
2013-10-07 01:36:00,61.5,41.6,30.02,NNW,343,1.0,2.0,48,0.00,,,0.00,Wunderground v.1.15,2013-10-07 06:36:00,
2013-10-07 01:41:00,61.5,41.1,30.02,NNW,343,1.0,2.0,47,0.00,,,0.00,Wunderground v.1.15,2013-10-07 06:41:00,
2013-10-07 01:42:00,61.5,41.1,30.02,NNW,343,1.0,2.0,47,0.00,,,0.00,Wunderground v.1.15,2013-10-07 06:42:00,
2013-10-07 01:43:00,61.5,41.1,30.02,NNW,343,1.0,1.0,47,0.00,,,0.00,Wunderground v.1.15,2013-10-07 06:43:00,
2013-10-07 01:44:00,61.5,41.1,30.02,NNW,343,1.0,1.0,47,0.00,,,0.00,Wunderground v.1.15,2013-10-07 06:44:00,
2013-10-07 01:45:00,61.5,41.1,30.02,NNW,343,1.0,1.0,47,0.00,,,0.00,Wunderground v.1.15,2013-10-07 06:45:00,
2013-10-07 01:48:00,61.6,41.2,30.02,NNW,343,1.0,1.0,47,0.00,,,0.00,Wunderground v.1.15,2013-10-07 06:48:00,
2013-10-07 01:52:00,61.6,41.2,30.02,NNW,343,0.0,1.0,47,0.00,,,0.00,Wunderground v.1.15,2013-10-07 06:52:00,
2013-10-07 01:53:00,61.6,40.6,30.02,NNW,343,0.0,0.0,46,0.00,,,0.00,Wunderground v.1.15,2013-10-07 06:53:00,
2013-10-07 01:55:00,61.6,40.6,30.02,NNW,343,0.0,0.0,46,0.00,,,0.00,Wunderground v.1.15,2013-10-07 06:55:00,
2013-10-07 01:57:00,61.6,40.6,30.02,NNW,343,0.0,0.0,46,0.00,,,0.00,Wunderground v.1.15,2013-10-07 06:57:00,
2013-10-07 01:58:00,61.6,40.0,30.02,NNW,343,0.0,0.0,45,0.00,,,0.00,Wunderground v.1.15,2013-10-07 06:58:00,
2013-10-07 02:01:00,61.8,40.2,30.02,NNW,343,0.0,0.0,45,0.00,,,0.00,Wunderground v.1.15,2013-10-07 07:01:00,
2013-10-07 02:03:00,61.8,40.2,30.02,NNW,343,0.0,0.0,45,0.00,,,0.00,Wunderground v.1.15,2013-10-07 07:03:00,
2013-10-07 02:04:00,61.8,40.2,30.02,NNW,343,0.0,0.0,45,0.00,,,0.00,Wunderground v.1.15,2013-10-07 07:04:00,
2013-10-07 02:08:00,62.0,40.4,30.02,NNW,343,0.0,0.0,45,0.00,,,0.00,Wunderground v.1.15,2013-10-07 07:08:00,
2013-10-07 02:10:00,62.0,40.4,30.02,NNW,343,0.0,0.0,45,0.00,,,0.00,Wunderground v.1.15,2013-10-07 07:10:00,
2013-10-07 02:11:00,62.0,40.4,30.02,NNW,343,0.0,0.0,45,0.00,,,0.00,Wunderground v.1.15,2013-10-07 07:11:00,
2013-10-07 02:12:00,62.0,40.4,30.02,NNW,343,0.0,0.0,45,0.00,,,0.00,Wunderground v.1.15,2013-10-07 07:12:00,
2013-10-07 02:14:00,62.0,39.8,30.02,NNW,343,0.0,0.0,44,0.00,,,0.00,Wunderground v.1.15,2013-10-07 07:14:00,
2013-10-07 02:16:00,62.0,39.8,30.02,NNW,343,0.0,0.0,44,0.00,,,0.00,Wunderground v.1.15,2013-10-07 07:16:00,
2013-10-07 02:18:00,62.0,39.8,30.02,NNW,343,0.0,0.0,44,0.00,,,0.00,Wunderground v.1.15,2013-10-07 07:18:00,
2013-10-07 02:20:00,62.0,39.8,30.02,NNW,343,0.0,0.0,44,0.00,,,0.00,Wunderground v.1.15,2013-10-07 07:20:00,
2013-10-07 02:22:00,62.0,39.8,30.02,NNW,343,0.0,0.0,44,0.00,,,0.00,Wunderground v.1.15,2013-10-07 07:22:00,
2013-10-07 02:24:00,62.0,39.8,30.02,NNW,343,0.0,0.0,44,0.00,,,0.00,Wunderground v.1.15,2013-10-07 07:24:00,
2013-10-07 02:26:00,62.0,39.8,30.02,NNW,343,0.0,0.0,44,0.00,,,0.00,Wunderground v.1.15,2013-10-07 07:26:00,
2013-10-07 02:27:00,62.0,39.8,30.02,NNW,343,0.0,0.0,44,0.00,,,0.00,Wunderground v.1.15,2013-10-07 07:27:00,
2013-10-07 02:30:00,62.0,39.8,30.02,NNW,343,0.0,0.0,44,0.00,,,0.00,Wunderground v.1.15,2013-10-07 07:30:00,
2013-10-07 02:31:00,62.0,39.8,30.02,NNW,343,0.0,0.0,44,0.00,,,0.00,Wunderground v.1.15,2013-10-07 07:31:00,
2013-10-07 02:32:00,62.0,39.8,30.02,NNW,343,0.0,0.0,44,0.00,,,0.00,Wunderground v.1.15,2013-10-07 07:32:00,
2013-10-07 02:33:00,62.0,39.8,30.02,NNW,343,0.0,0.0,44,0.00,,,0.00,Wunderground v.1.15,2013-10-07 07:33:00,
2013-10-07 02:34:00,62.0,39.8,30.02,NNW,343,0.0,0.0,44,0.00,,,0.00,Wunderground v.1.15,2013-10-07 07:34:00,
2013-10-07 02:36:00,62.0,40.4,30.02,NNW,343,0.0,0.0,45,0.00,,,0.00,Wunderground v.1.15,2013-10-07 07:36:00,
2013-10-07 02:37:00,62.0,40.4,30.02,NNW,343,0.0,0.0,45,0.00,,,0.00,Wunderground v.1.15,2013-10-07 07:37:00,
2013-10-07 02:38:00,62.0,40.4,30.02,NNW,343,0.0,0.0,45,0.00,,,0.00,Wunderground v.1.15,2013-10-07 07:38:00,
2013-10-07 02:42:00,61.6,40.0,30.02,NNW,343,0.0,2.0,45,0.00,,,0.00,Wunderground v.1.15,2013-10-07 07:42:00,
2013-10-07 02:43:00,61.6,40.0,30.02,NNW,343,0.0,2.0,45,0.00,,,0.00,Wunderground v.1.15,2013-10-07 07:43:00,
2013-10-07 02:44:00,61.6,40.6,30.02,NNW,343,1.0,2.0,46,0.00,,,0.00,Wunderground v.1.15,2013-10-07 07:44:00,
2013-10-07 02:45:00,61.5,40.5,30.02,NNW,342,1.0,2.0,46,0.00,,,0.00,Wunderground v.1.15,2013-10-07 07:45:00,
2013-10-07 02:48:00,61.5,39.9,30.02,NNW,342,1.0,2.0,45,0.00,,,0.00,Wunderground v.1.15,2013-10-07 07:48:00,
2013-10-07 02:50:00,61.3,39.8,30.02,NNW,342,1.0,2.0,45,0.00,,,0.00,Wunderground v.1.15,2013-10-07 07:50:00,
2013-10-07 02:51:00,61.3,39.8,30.02,NNW,336,1.0,2.0,45,0.00,,,0.00,Wunderground v.1.15,2013-10-07 07:51:00,
2013-10-07 02:52:00,61.3,39.8,30.02,NNW,336,1.0,2.0,45,0.00,,,0.00,Wunderground v.1.15,2013-10-07 07:52:00,
2013-10-07 02:56:00,60.5,42.8,30.02,NNW,336,1.0,2.0,52,0.00,,,0.00,Wunderground v.1.15,2013-10-07 07:56:00,
2013-10-07 02:57:00,60.4,43.2,30.02,NNW,336,1.0,2.0,53,0.00,,,0.00,Wunderground v.1.15,2013-10-07 07:57:00,
2013-10-07 02:58:00,60.2,44.0,30.02,NNW,336,0.0,2.0,55,0.00,,,0.00,Wunderground v.1.15,2013-10-07 07:58:00,
2013-10-07 03:01:00,59.5,43.8,30.02,NNW,336,0.0,0.0,56,0.00,,,0.00,Wunderground v.1.15,2013-10-07 08:01:00,
2013-10-07 03:02:00,59.3,44.1,30.02,NNW,336,0.0,0.0,57,0.00,,,0.00,Wunderground v.1.15,2013-10-07 08:02:00,
2013-10-07 03:03:00,59.0,44.2,30.02,NNW,336,0.0,0.0,58,0.00,,,0.00,Wunderground v.1.15,2013-10-07 08:03:00,
2013-10-07 03:07:00,58.3,44.0,30.02,NNW,336,0.0,0.0,59,0.00,,,0.00,Wunderground v.1.15,2013-10-07 08:07:00,
2013-10-07 03:11:00,57.6,43.8,30.02,NNW,336,0.0,0.0,60,0.00,,,0.00,Wunderground v.1.15,2013-10-07 08:11:00,
2013-10-07 03:13:00,57.5,44.1,30.02,NNW,336,0.0,0.0,61,0.00,,,0.00,Wunderground v.1.15,2013-10-07 08:13:00,
2013-10-07 03:14:00,57.3,44.0,30.02,NNW,336,0.0,0.0,61,0.00,,,0.00,Wunderground v.1.15,2013-10-07 08:14:00,
2013-10-07 03:17:00,57.2,44.3,30.02,NNW,336,0.0,0.0,62,0.00,,,0.00,Wunderground v.1.15,2013-10-07 08:17:00,
2013-10-07 03:21:00,57.0,44.1,30.02,NNW,336,0.0,0.0,62,0.00,,,0.00,Wunderground v.1.15,2013-10-07 08:21:00,
2013-10-07 03:22:00,57.0,44.1,30.02,NNW,336,0.0,0.0,62,0.00,,,0.00,Wunderground v.1.15,2013-10-07 08:22:00,
2013-10-07 03:26:00,57.0,43.7,30.02,NNW,336,0.0,0.0,61,0.00,,,0.00,Wunderground v.1.15,2013-10-07 08:26:00,
2013-10-07 03:27:00,57.0,43.7,30.02,NNW,336,0.0,0.0,61,0.00,,,0.00,Wunderground v.1.15,2013-10-07 08:27:00,
2013-10-07 03:31:00,57.0,43.2,30.02,NNW,336,0.0,0.0,60,0.00,,,0.00,Wunderground v.1.15,2013-10-07 08:31:00,
2013-10-07 03:33:00,57.0,43.2,30.02,NNW,336,0.0,0.0,60,0.00,,,0.00,Wunderground v.1.15,2013-10-07 08:33:00,
2013-10-07 03:34:00,57.0,43.2,30.02,NNW,336,0.0,0.0,60,0.00,,,0.00,Wunderground v.1.15,2013-10-07 08:34:00,
2013-10-07 03:35:00,57.0,43.2,30.02,NNW,336,0.0,0.0,60,0.00,,,0.00,Wunderground v.1.15,2013-10-07 08:35:00,
2013-10-07 03:38:00,57.0,41.9,30.02,NNW,336,0.0,1.0,57,0.00,,,0.00,Wunderground v.1.15,2013-10-07 08:38:00,
2013-10-07 03:40:00,57.0,41.4,30.02,NNW,336,0.0,0.0,56,0.00,,,0.00,Wunderground v.1.15,2013-10-07 08:40:00,
2013-10-07 03:41:00,57.2,41.6,30.02,NNW,336,0.0,0.0,56,0.00,,,0.00,Wunderground v.1.15,2013-10-07 08:41:00,
2013-10-07 03:42:00,57.2,41.6,30.02,NNW,336,0.0,2.0,56,0.00,,,0.00,Wunderground v.1.15,2013-10-07 08:42:00,
2013-10-07 03:43:00,57.2,41.2,30.02,NNW,336,0.0,2.0,55,0.00,,,0.00,Wunderground v.1.15,2013-10-07 08:43:00,
2013-10-07 03:47:00,57.5,40.5,30.01,NNW,336,1.0,2.0,53,0.00,,,0.00,Wunderground v.1.15,2013-10-07 08:47:00,
2013-10-07 03:48:00,57.6,40.6,30.01,NNW,336,0.0,2.0,53,0.00,,,0.00,Wunderground v.1.15,2013-10-07 08:48:00,
2013-10-07 03:50:00,57.8,39.8,30.01,NNW,336,0.0,0.0,51,0.00,,,0.00,Wunderground v.1.15,2013-10-07 08:50:00,
2013-10-07 03:54:00,58.3,40.2,30.01,NNW,336,0.0,0.0,51,0.00,,,0.00,Wunderground v.1.15,2013-10-07 08:54:00,
2013-10-07 03:55:00,58.3,40.2,30.01,NNW,336,0.0,0.0,51,0.00,,,0.00,Wunderground v.1.15,2013-10-07 08:55:00,
2013-10-07 03:56:00,58.4,39.8,30.01,NNW,336,0.0,0.0,50,0.00,,,0.00,Wunderground v.1.15,2013-10-07 08:56:00,
2013-10-07 04:02:00,58.7,40.1,30.01,NNW,336,0.0,0.0,50,0.00,,,0.00,Wunderground v.1.15,2013-10-07 09:02:00,
2013-10-07 04:04:00,58.9,39.8,30.01,NNW,336,0.0,1.0,49,0.00,,,0.00,Wunderground v.1.15,2013-10-07 09:04:00,
2013-10-07 04:05:00,58.9,39.8,30.01,NNW,336,0.0,1.0,49,0.00,,,0.00,Wunderground v.1.15,2013-10-07 09:05:00,
2013-10-07 04:06:00,58.9,39.2,30.01,NNW,336,0.0,1.0,48,0.00,,,0.00,Wunderground v.1.15,2013-10-07 09:06:00,
2013-10-07 04:08:00,59.0,39.3,30.01,NNW,336,0.0,1.0,48,0.00,,,0.00,Wunderground v.1.15,2013-10-07 09:08:00,
2013-10-07 04:13:00,59.3,39.1,30.01,NNW,336,0.0,0.0,47,0.00,,,0.00,Wunderground v.1.15,2013-10-07 09:13:00,
2013-10-07 04:14:00,59.5,39.2,30.01,NNW,336,0.0,0.0,47,0.00,,,0.00,Wunderground v.1.15,2013-10-07 09:14:00,
2013-10-07 04:16:00,59.5,39.2,30.01,NNW,336,0.0,0.0,47,0.00,,,0.00,Wunderground v.1.15,2013-10-07 09:16:00,
2013-10-07 04:20:00,59.6,39.9,30.01,NNW,336,0.0,0.0,48,0.00,,,0.00,Wunderground v.1.15,2013-10-07 09:20:00,
2013-10-07 04:23:00,59.5,39.8,30.01,NNW,336,0.0,0.0,48,0.00,,,0.00,Wunderground v.1.15,2013-10-07 09:23:00,
2013-10-07 04:25:00,59.5,39.8,30.01,NNW,336,0.0,1.0,48,0.00,,,0.00,Wunderground v.1.15,2013-10-07 09:25:00,
2013-10-07 04:26:00,59.5,40.3,30.01,NNW,336,0.0,1.0,49,0.00,,,0.00,Wunderground v.1.15,2013-10-07 09:26:00,
2013-10-07 04:27:00,59.5,40.3,30.01,NNW,336,0.0,1.0,49,0.00,,,0.00,Wunderground v.1.15,2013-10-07 09:27:00,
2013-10-07 04:28:00,59.5,40.8,30.01,NNW,336,0.0,1.0,50,0.00,,,0.00,Wunderground v.1.15,2013-10-07 09:28:00,
2013-10-07 04:32:00,59.2,41.1,30.01,NNW,336,0.0,1.0,51,0.00,,,0.00,Wunderground v.1.15,2013-10-07 09:32:00,
2013-10-07 04:33:00,59.2,41.1,30.01,NNW,336,0.0,1.0,51,0.00,,,0.00,Wunderground v.1.15,2013-10-07 09:33:00,
2013-10-07 04:34:00,59.0,40.9,30.01,NNW,336,0.0,1.0,51,0.00,,,0.00,Wunderground v.1.15,2013-10-07 09:34:00,
2013-10-07 04:38:00,58.9,41.3,30.01,NNW,336,0.0,1.0,52,0.00,,,0.00,Wunderground v.1.15,2013-10-07 09:38:00,
2013-10-07 04:40:00,58.7,40.6,30.01,NNW,336,0.0,0.0,51,0.00,,,0.00,Wunderground v.1.15,2013-10-07 09:40:00,
2013-10-07 04:42:00,58.7,40.6,30.01,NNW,336,0.0,0.0,51,0.00,,,0.00,Wunderground v.1.15,2013-10-07 09:42:00,
2013-10-07 04:44:00,58.7,41.1,30.01,NNW,336,0.0,0.0,52,0.00,,,0.00,Wunderground v.1.15,2013-10-07 09:44:00,
2013-10-07 04:47:00,58.6,41.0,30.01,NNW,336,0.0,0.0,52,0.00,,,0.00,Wunderground v.1.15,2013-10-07 09:47:00,
2013-10-07 04:50:00,58.4,41.3,30.01,NNW,336,0.0,0.0,53,0.00,,,0.00,Wunderground v.1.15,2013-10-07 09:50:00,
2013-10-07 04:51:00,58.4,41.3,30.01,NNW,336,0.0,0.0,53,0.00,,,0.00,Wunderground v.1.15,2013-10-07 09:51:00,
2013-10-07 04:53:00,58.3,40.7,30.01,NNW,336,0.0,0.0,52,0.00,,,0.00,Wunderground v.1.15,2013-10-07 09:53:00,
2013-10-07 04:56:00,58.3,40.7,30.01,NNW,336,0.0,2.0,52,0.00,,,0.00,Wunderground v.1.15,2013-10-07 09:56:00,
2013-10-07 04:58:00,58.3,40.7,30.01,NNW,336,0.0,2.0,52,0.00,,,0.00,Wunderground v.1.15,2013-10-07 09:58:00,
2013-10-07 05:00:00,58.3,41.2,30.01,NNW,336,0.0,0.0,53,0.00,,,0.00,Wunderground v.1.15,2013-10-07 10:00:00,
2013-10-07 05:01:00,58.3,41.2,30.01,NNW,336,1.0,1.0,53,0.00,,,0.00,Wunderground v.1.15,2013-10-07 10:01:00,
2013-10-07 05:03:00,58.1,41.0,30.01,NNW,336,1.0,2.0,53,0.00,,,0.00,Wunderground v.1.15,2013-10-07 10:03:00,
2013-10-07 05:05:00,58.1,40.6,30.01,NNW,336,1.0,2.0,52,0.00,,,0.00,Wunderground v.1.15,2013-10-07 10:05:00,
2013-10-07 05:06:00,58.1,41.0,30.01,NNW,336,1.0,2.0,53,0.00,,,0.00,Wunderground v.1.15,2013-10-07 10:06:00,
2013-10-07 05:07:00,58.1,40.6,30.01,NNW,336,1.0,2.0,52,0.00,,,0.00,Wunderground v.1.15,2013-10-07 10:07:00,
2013-10-07 05:08:00,58.1,40.6,30.01,NNW,336,1.0,2.0,52,0.00,,,0.00,Wunderground v.1.15,2013-10-07 10:08:00,
2013-10-07 05:11:00,58.1,40.6,30.01,NNW,336,1.0,1.0,52,0.00,,,0.00,Wunderground v.1.15,2013-10-07 10:11:00,
2013-10-07 05:15:00,58.1,40.6,30.01,NNW,336,0.0,2.0,52,0.00,,,0.00,Wunderground v.1.15,2013-10-07 10:15:00,
2013-10-07 05:16:00,58.1,40.6,30.01,NNW,337,0.0,3.0,52,0.00,,,0.00,Wunderground v.1.15,2013-10-07 10:16:00,
2013-10-07 05:17:00,58.1,40.6,30.02,NNW,336,0.0,3.0,52,0.00,,,0.00,Wunderground v.1.15,2013-10-07 10:17:00,
2013-10-07 05:21:00,58.3,40.7,30.02,NNW,333,1.0,2.0,52,0.00,,,0.00,Wunderground v.1.15,2013-10-07 10:21:00,
2013-10-07 05:22:00,58.3,40.7,30.02,NNW,333,1.0,2.0,52,0.00,,,0.00,Wunderground v.1.15,2013-10-07 10:22:00,
2013-10-07 05:23:00,58.3,40.7,30.02,NNW,333,1.0,2.0,52,0.00,,,0.00,Wunderground v.1.15,2013-10-07 10:23:00,
2013-10-07 05:24:00,58.3,40.7,30.02,NNW,333,2.0,2.0,52,0.00,,,0.00,Wunderground v.1.15,2013-10-07 10:24:00,
2013-10-07 05:26:00,58.3,40.7,30.02,NNW,332,2.0,5.0,52,0.00,,,0.00,Wunderground v.1.15,2013-10-07 10:26:00,
2013-10-07 05:27:00,58.3,40.7,30.02,NNW,332,2.0,5.0,52,0.00,,,0.00,Wunderground v.1.15,2013-10-07 10:27:00,
2013-10-07 05:31:00,58.3,40.7,30.02,NNW,330,2.0,2.0,52,0.00,,,0.00,Wunderground v.1.15,2013-10-07 10:31:00,
2013-10-07 05:32:00,58.3,40.7,30.02,NNW,330,2.0,2.0,52,0.00,,,0.00,Wunderground v.1.15,2013-10-07 10:32:00,
2013-10-07 05:33:00,58.3,40.7,30.02,NNW,330,2.0,2.0,52,0.00,,,0.00,Wunderground v.1.15,2013-10-07 10:33:00,
2013-10-07 05:34:00,58.3,40.7,30.02,NNW,330,2.0,2.0,52,0.00,,,0.00,Wunderground v.1.15,2013-10-07 10:34:00,
2013-10-07 05:37:00,58.1,40.6,30.02,NNW,330,1.0,3.0,52,0.00,,,0.00,Wunderground v.1.15,2013-10-07 10:37:00,
2013-10-07 05:41:00,58.1,40.6,30.02,NNW,330,1.0,1.0,52,0.00,,,0.00,Wunderground v.1.15,2013-10-07 10:41:00,
2013-10-07 05:42:00,58.1,40.6,30.02,NNW,329,1.0,2.0,52,0.00,,,0.00,Wunderground v.1.15,2013-10-07 10:42:00,
2013-10-07 05:44:00,58.1,40.6,30.02,NNW,329,2.0,2.0,52,0.00,,,0.00,Wunderground v.1.15,2013-10-07 10:44:00,
2013-10-07 05:46:00,58.1,40.6,30.02,NNW,329,2.0,5.0,52,0.00,,,0.00,Wunderground v.1.15,2013-10-07 10:46:00,
2013-10-07 05:47:00,58.3,40.7,30.02,NW,326,2.0,5.0,52,0.00,,,0.00,Wunderground v.1.15,2013-10-07 10:47:00,
2013-10-07 05:51:00,58.3,40.7,30.02,NW,323,2.0,2.0,52,0.00,,,0.00,Wunderground v.1.15,2013-10-07 10:51:00,
2013-10-07 05:52:00,58.3,40.2,30.02,NW,323,2.0,4.0,51,0.00,,,0.00,Wunderground v.1.15,2013-10-07 10:52:00,
2013-10-07 05:53:00,58.3,40.7,30.02,NW,325,2.0,4.0,52,0.00,,,0.00,Wunderground v.1.15,2013-10-07 10:53:00,
2013-10-07 05:54:00,58.4,40.3,30.02,NW,326,3.0,4.0,51,0.00,,,0.00,Wunderground v.1.15,2013-10-07 10:54:00,
2013-10-07 05:58:00,58.6,40.5,30.02,NW,326,3.0,6.0,51,0.00,,,0.00,Wunderground v.1.15,2013-10-07 10:58:00,
2013-10-07 06:01:00,58.6,40.5,30.02,NW,326,3.0,3.0,51,0.00,,,0.00,Wunderground v.1.15,2013-10-07 11:01:00,
2013-10-07 06:02:00,58.6,40.5,30.02,NW,326,3.0,3.0,51,0.00,,,0.00,Wunderground v.1.15,2013-10-07 11:02:00,
2013-10-07 06:05:00,58.6,40.5,30.02,NW,323,3.0,3.0,51,0.00,,,0.00,Wunderground v.1.15,2013-10-07 11:05:00,
2013-10-07 06:06:00,58.6,40.5,30.02,NW,323,3.0,3.0,51,0.00,,,0.00,Wunderground v.1.15,2013-10-07 11:06:00,
2013-10-07 06:07:00,58.6,40.5,30.02,NW,322,3.0,5.0,51,0.00,,,0.00,Wunderground v.1.15,2013-10-07 11:07:00,
2013-10-07 06:12:00,58.6,40.0,30.02,NW,319,3.0,4.0,50,0.00,,,0.00,Wunderground v.1.15,2013-10-07 11:12:00,
2013-10-07 06:13:00,58.6,40.0,30.02,NW,319,3.0,4.0,50,0.00,,,0.00,Wunderground v.1.15,2013-10-07 11:13:00,
2013-10-07 06:14:00,58.7,40.1,30.02,NW,320,3.0,4.0,50,0.00,,,0.00,Wunderground v.1.15,2013-10-07 11:14:00,
2013-10-07 06:16:00,58.7,39.6,30.02,NW,323,3.0,4.0,49,0.00,,,0.00,Wunderground v.1.15,2013-10-07 11:16:00,
2013-10-07 06:20:00,59.0,39.3,30.04,NW,323,3.0,3.0,48,0.00,,,0.00,Wunderground v.1.15,2013-10-07 11:20:00,
2013-10-07 06:22:00,59.0,39.3,30.04,NW,323,3.0,3.0,48,0.00,,,0.00,Wunderground v.1.15,2013-10-07 11:22:00,
2013-10-07 06:23:00,59.2,39.5,30.04,NW,323,3.0,3.0,48,0.00,,,0.00,Wunderground v.1.15,2013-10-07 11:23:00,
2013-10-07 06:26:00,59.2,39.5,30.04,NW,323,3.0,4.0,48,0.00,,,0.00,Wunderground v.1.15,2013-10-07 11:26:00,
2013-10-07 06:27:00,59.2,39.5,30.04,NW,323,2.0,5.0,48,0.00,,,0.00,Wunderground v.1.15,2013-10-07 11:27:00,
2013-10-07 06:28:00,59.3,39.6,30.04,NW,323,2.0,5.0,48,0.00,,,0.00,Wunderground v.1.15,2013-10-07 11:28:00,
2013-10-07 06:30:00,59.3,39.6,30.04,NW,323,2.0,3.0,48,0.00,,,0.00,Wunderground v.1.15,2013-10-07 11:30:00,
2013-10-07 06:33:00,59.3,39.6,30.04,NW,323,2.0,4.0,48,0.00,,,0.00,Wunderground v.1.15,2013-10-07 11:33:00,
2013-10-07 06:35:00,59.3,39.6,30.04,NW,323,2.0,4.0,48,0.00,,,0.00,Wunderground v.1.15,2013-10-07 11:35:00,
2013-10-07 06:38:00,59.2,39.5,30.04,NW,325,2.0,4.0,48,0.00,,,0.00,Wunderground v.1.15,2013-10-07 11:38:00,
2013-10-07 06:41:00,59.2,40.0,30.04,NW,323,2.0,2.0,49,0.00,,,0.00,Wunderground v.1.15,2013-10-07 11:41:00,
2013-10-07 06:42:00,59.2,40.0,30.04,NW,323,2.0,2.0,49,0.00,,,0.00,Wunderground v.1.15,2013-10-07 11:42:00,
2013-10-07 06:43:00,59.0,39.9,30.04,NW,325,2.0,2.0,49,0.00,,,0.00,Wunderground v.1.15,2013-10-07 11:43:00,
2013-10-07 06:45:00,59.0,39.9,30.04,NW,325,2.0,2.0,49,0.00,,,0.00,Wunderground v.1.15,2013-10-07 11:45:00,
2013-10-07 06:50:00,58.7,40.1,30.04,NW,325,2.0,2.0,50,0.00,,,0.00,Wunderground v.1.15,2013-10-07 11:50:00,
2013-10-07 06:51:00,58.7,40.1,30.04,NW,325,2.0,3.0,50,0.00,,,0.00,Wunderground v.1.15,2013-10-07 11:51:00,
2013-10-07 06:52:00,58.7,40.1,30.04,NW,325,2.0,3.0,50,0.00,,,0.00,Wunderground v.1.15,2013-10-07 11:52:00,
2013-10-07 06:53:00,58.6,40.0,30.04,NW,325,2.0,3.0,50,0.00,,,0.00,Wunderground v.1.15,2013-10-07 11:53:00,
2013-10-07 06:56:00,58.6,40.0,30.04,NW,325,2.0,3.0,50,0.00,,,0.00,Wunderground v.1.15,2013-10-07 11:56:00,
2013-10-07 06:57:00,58.4,39.8,30.04,NW,325,2.0,3.0,50,0.00,,,0.00,Wunderground v.1.15,2013-10-07 11:57:00,
2013-10-07 07:00:00,58.4,39.8,30.04,NW,325,2.0,3.0,50,0.00,,,0.00,Wunderground v.1.15,2013-10-07 12:00:00,
2013-10-07 07:01:00,58.4,39.8,30.04,NW,325,2.0,3.0,50,0.00,,,0.00,Wunderground v.1.15,2013-10-07 12:01:00,
2013-10-07 07:02:00,58.4,39.8,30.05,NW,325,2.0,3.0,50,0.00,,,0.00,Wunderground v.1.15,2013-10-07 12:02:00,
2013-10-07 07:05:00,58.4,40.3,30.05,NW,325,2.0,4.0,51,0.00,,,0.00,Wunderground v.1.15,2013-10-07 12:05:00,
2013-10-07 07:07:00,58.3,39.7,30.05,NW,326,3.0,4.0,50,0.00,,,0.00,Wunderground v.1.15,2013-10-07 12:07:00,
2013-10-07 07:10:00,58.3,40.2,30.05,NNW,328,3.0,3.0,51,0.00,,,0.00,Wunderground v.1.15,2013-10-07 12:10:00,
2013-10-07 07:11:00,58.3,40.2,30.05,NW,326,3.0,3.0,51,0.00,,,0.00,Wunderground v.1.15,2013-10-07 12:11:00,
2013-10-07 07:12:00,58.3,39.7,30.05,NW,326,3.0,3.0,50,0.00,,,0.00,Wunderground v.1.15,2013-10-07 12:12:00,
2013-10-07 07:13:00,58.3,40.2,30.05,NW,326,3.0,3.0,51,0.00,,,0.00,Wunderground v.1.15,2013-10-07 12:13:00,
2013-10-07 07:17:00,58.3,40.2,30.04,NW,326,2.0,3.0,51,0.00,,,0.00,Wunderground v.1.15,2013-10-07 12:17:00,
2013-10-07 07:18:00,58.3,39.7,30.04,NW,325,2.0,3.0,50,0.00,,,0.00,Wunderground v.1.15,2013-10-07 12:18:00,
2013-10-07 07:20:00,58.3,40.2,30.04,NW,323,2.0,2.0,51,0.00,,,0.00,Wunderground v.1.15,2013-10-07 12:20:00,
2013-10-07 07:21:00,58.3,40.2,30.04,NNW,329,2.0,2.0,51,0.00,,,0.00,Wunderground v.1.15,2013-10-07 12:21:00,
2013-10-07 07:23:00,58.3,40.2,30.04,NNW,329,2.0,2.0,51,0.00,,,0.00,Wunderground v.1.15,2013-10-07 12:23:00,
2013-10-07 07:25:00,58.3,39.7,30.04,NNW,332,2.0,6.0,50,0.00,,,0.00,Wunderground v.1.15,2013-10-07 12:25:00,
2013-10-07 07:28:00,58.3,39.7,30.04,NNW,330,3.0,6.0,50,0.00,,,0.00,Wunderground v.1.15,2013-10-07 12:28:00,
2013-10-07 07:30:00,58.3,39.7,30.04,NNW,330,3.0,3.0,50,0.00,,,0.00,Wunderground v.1.15,2013-10-07 12:30:00,
2013-10-07 07:31:00,58.3,39.7,30.04,NNW,330,3.0,3.0,50,0.00,,,0.00,Wunderground v.1.15,2013-10-07 12:31:00,
2013-10-07 07:33:00,58.3,39.7,30.04,NNW,330,3.0,3.0,50,0.00,,,0.00,Wunderground v.1.15,2013-10-07 12:33:00,
2013-10-07 07:35:00,58.4,40.3,30.04,NNW,330,2.0,3.0,51,0.00,,,0.00,Wunderground v.1.15,2013-10-07 12:35:00,
2013-10-07 07:36:00,58.4,40.3,30.04,NNW,330,2.0,3.0,51,0.00,,,0.00,Wunderground v.1.15,2013-10-07 12:36:00,
2013-10-07 07:40:00,58.4,40.3,30.04,NNW,330,2.0,2.0,51,0.00,,,0.00,Wunderground v.1.15,2013-10-07 12:40:00,
2013-10-07 07:41:00,58.4,39.8,30.04,NNW,333,2.0,5.0,50,0.00,,,0.00,Wunderground v.1.15,2013-10-07 12:41:00,
2013-10-07 07:44:00,58.4,39.8,30.04,NNW,343,2.0,5.0,50,0.00,,,0.00,Wunderground v.1.15,2013-10-07 12:44:00,
2013-10-07 07:45:00,58.6,40.0,30.04,NNW,340,2.0,5.0,50,0.00,,,0.00,Wunderground v.1.15,2013-10-07 12:45:00,
2013-10-07 07:47:00,58.6,40.0,30.04,NNW,332,3.0,5.0,50,0.00,,,0.00,Wunderground v.1.15,2013-10-07 12:47:00,
2013-10-07 07:50:00,58.6,40.0,30.04,NNW,332,3.0,3.0,50,0.00,,,0.00,Wunderground v.1.15,2013-10-07 12:50:00,
2013-10-07 07:51:00,58.7,40.1,30.04,NNW,332,3.0,3.0,50,0.00,,,0.00,Wunderground v.1.15,2013-10-07 12:51:00,
2013-10-07 07:52:00,58.7,40.1,30.04,NNW,344,3.0,6.0,50,0.00,,,0.00,Wunderground v.1.15,2013-10-07 12:52:00,
2013-10-07 07:53:00,58.7,40.1,30.04,NW,325,3.0,6.0,50,0.00,,,0.00,Wunderground v.1.15,2013-10-07 12:53:00,
2013-10-07 07:55:00,58.9,40.3,30.04,NNW,328,3.0,6.0,50,0.00,,,0.00,Wunderground v.1.15,2013-10-07 12:55:00,
2013-10-07 07:56:00,58.9,40.3,30.04,NNW,328,3.0,6.0,50,0.00,,,0.00,Wunderground v.1.15,2013-10-07 12:56:00,
2013-10-07 07:58:00,59.0,40.4,30.04,NNW,335,3.0,6.0,50,0.00,,,0.00,Wunderground v.1.15,2013-10-07 12:58:00,
2013-10-07 08:02:00,59.2,40.6,30.04,North,356,3.0,3.0,50,0.00,,,0.00,Wunderground v.1.15,2013-10-07 13:02:00,
2013-10-07 08:03:00,59.2,40.6,30.04,NW,322,3.0,4.0,50,0.00,,,0.00,Wunderground v.1.15,2013-10-07 13:03:00,
2013-10-07 08:05:00,59.3,40.1,30.04,NNW,340,3.0,5.0,49,0.00,,,0.00,Wunderground v.1.15,2013-10-07 13:05:00,
2013-10-07 08:07:00,59.5,40.3,30.04,NNW,332,3.0,5.0,49,0.00,,,0.00,Wunderground v.1.15,2013-10-07 13:07:00,
2013-10-07 08:08:00,59.5,40.8,30.04,NNW,332,3.0,5.0,50,0.00,,,0.00,Wunderground v.1.15,2013-10-07 13:08:00,
2013-10-07 08:11:00,59.6,40.9,30.04,NNW,335,3.0,3.0,50,0.00,,,0.00,Wunderground v.1.15,2013-10-07 13:11:00,
2013-10-07 08:12:00,59.6,40.9,30.04,NNW,333,3.0,3.0,50,0.00,,,0.00,Wunderground v.1.15,2013-10-07 13:12:00,
2013-10-07 08:15:00,59.9,40.7,30.04,NNW,335,3.0,3.0,49,0.00,,,0.00,Wunderground v.1.15,2013-10-07 13:15:00,
2013-10-07 08:16:00,59.9,40.7,30.04,NNW,336,3.0,3.0,49,0.00,,,0.00,Wunderground v.1.15,2013-10-07 13:16:00,
2013-10-07 08:17:00,59.9,40.7,30.05,NNW,335,3.0,3.0,49,0.00,,,0.00,Wunderground v.1.15,2013-10-07 13:17:00,
2013-10-07 08:22:00,60.4,40.6,30.05,NNW,337,2.0,3.0,48,0.00,,,0.00,Wunderground v.1.15,2013-10-07 13:22:00,
2013-10-07 08:23:00,60.5,40.7,30.05,NNW,337,2.0,3.0,48,0.00,,,0.00,Wunderground v.1.15,2013-10-07 13:23:00,
2013-10-07 08:24:00,60.7,40.9,30.05,NNW,337,2.0,3.0,48,0.00,,,0.00,Wunderground v.1.15,2013-10-07 13:24:00,
2013-10-07 08:25:00,60.7,40.9,30.05,NNW,339,2.0,4.0,48,0.00,,,0.00,Wunderground v.1.15,2013-10-07 13:25:00,
2013-10-07 08:27:00,60.9,41.1,30.05,NNW,337,2.0,4.0,48,0.00,,,0.00,Wunderground v.1.15,2013-10-07 13:27:00,
2013-10-07 08:31:00,61.3,40.9,30.05,NNW,337,2.0,3.0,47,0.00,,,0.00,Wunderground v.1.15,2013-10-07 13:31:00,
2013-10-07 08:33:00,61.5,41.1,30.06,NNW,336,2.0,3.0,47,0.00,,,0.00,Wunderground v.1.15,2013-10-07 13:33:00,
2013-10-07 08:35:00,61.6,41.2,30.06,NNW,337,2.0,3.0,47,0.00,,,0.00,Wunderground v.1.15,2013-10-07 13:35:00,
2013-10-07 08:36:00,61.8,41.3,30.06,NNW,337,2.0,3.0,47,0.00,,,0.00,Wunderground v.1.15,2013-10-07 13:36:00,
2013-10-07 08:38:00,62.1,41.1,30.06,NNW,340,2.0,3.0,46,0.00,,,0.00,Wunderground v.1.15,2013-10-07 13:38:00,
2013-10-07 08:41:00,62.3,42.3,30.06,North,0,2.0,3.0,48,0.00,,,0.00,Wunderground v.1.15,2013-10-07 13:41:00,
2013-10-07 08:42:00,62.3,43.4,30.06,ENE,61,2.0,5.0,50,0.00,,,0.00,Wunderground v.1.15,2013-10-07 13:42:00,
2013-10-07 08:43:00,62.1,43.7,30.06,ENE,58,2.0,7.0,51,0.00,,,0.00,Wunderground v.1.15,2013-10-07 13:43:00,
2013-10-07 08:46:00,61.3,43.5,30.06,NE,37,3.0,7.0,52,0.00,,,0.00,Wunderground v.1.15,2013-10-07 13:46:00,
2013-10-07 08:47:00,61.2,43.4,30.07,North,357,4.0,7.0,52,0.00,,,0.00,Wunderground v.1.15,2013-10-07 13:47:00,
2013-10-07 08:51:00,60.9,42.6,30.07,NNE,20,5.0,5.0,51,0.00,,,0.00,Wunderground v.1.15,2013-10-07 13:51:00,
2013-10-07 08:54:00,61.2,42.9,30.07,NE,38,5.0,7.0,51,0.00,,,0.00,Wunderground v.1.15,2013-10-07 13:54:00,
2013-10-07 08:55:00,61.2,42.9,30.07,NE,48,4.0,8.0,51,0.00,,,0.00,Wunderground v.1.15,2013-10-07 13:55:00,
2013-10-07 08:56:00,61.3,43.0,30.07,North,3,5.0,8.0,51,0.00,,,0.00,Wunderground v.1.15,2013-10-07 13:56:00,
2013-10-07 08:57:00,61.5,43.2,30.07,NNE,32,5.0,8.0,51,0.00,,,0.00,Wunderground v.1.15,2013-10-07 13:57:00,
2013-10-07 09:01:00,61.8,44.0,30.07,NNE,27,5.0,5.0,52,0.00,,,0.00,Wunderground v.1.15,2013-10-07 14:01:00,
2013-10-07 09:02:00,62.0,43.7,30.07,NNE,28,5.0,6.0,51,0.00,,,0.00,Wunderground v.1.15,2013-10-07 14:02:00,
2013-10-07 09:04:00,62.1,43.7,30.07,NNE,23,5.0,6.0,51,0.00,,,0.00,Wunderground v.1.15,2013-10-07 14:04:00,
2013-10-07 09:07:00,62.3,43.4,30.07,North,4,5.0,6.0,50,0.00,,,0.00,Wunderground v.1.15,2013-10-07 14:07:00,
2013-10-07 09:10:00,62.4,43.5,30.07,North,8,5.0,5.0,50,0.00,,,0.00,Wunderground v.1.15,2013-10-07 14:10:00,
2013-10-07 09:13:00,62.9,44.0,30.07,North,0,4.0,5.0,50,0.00,,,0.00,Wunderground v.1.15,2013-10-07 14:13:00,
2013-10-07 09:16:00,63.2,44.2,30.07,North,0,3.0,5.0,50,0.00,,,0.00,Wunderground v.1.15,2013-10-07 14:16:00,
2013-10-07 09:17:00,63.4,44.4,30.08,North,11,3.0,5.0,50,0.00,,,0.00,Wunderground v.1.15,2013-10-07 14:17:00,
2013-10-07 09:18:00,63.5,43.4,30.08,North,356,3.0,6.0,48,0.00,,,0.00,Wunderground v.1.15,2013-10-07 14:18:00,
2013-10-07 09:22:00,64.0,43.9,30.08,NNE,23,2.0,6.0,48,0.00,,,0.00,Wunderground v.1.15,2013-10-07 14:22:00,
2013-10-07 09:24:00,64.3,43.6,30.08,NNE,24,3.0,6.0,47,0.00,,,0.00,Wunderground v.1.15,2013-10-07 14:24:00,
2013-10-07 09:27:00,64.7,44.0,30.08,North,10,3.0,6.0,47,0.00,,,0.00,Wunderground v.1.15,2013-10-07 14:27:00,
2013-10-07 09:28:00,65.0,44.8,30.08,NE,40,3.0,6.0,48,0.00,,,0.00,Wunderground v.1.15,2013-10-07 14:28:00,
2013-10-07 09:30:00,65.2,45.5,30.08,NE,34,3.0,5.0,49,0.00,,,0.00,Wunderground v.1.15,2013-10-07 14:30:00,
2013-10-07 09:34:00,65.2,45.0,30.08,NNE,28,4.0,6.0,48,0.00,,,0.00,Wunderground v.1.15,2013-10-07 14:34:00,
2013-10-07 09:35:00,65.2,45.0,30.08,North,0,4.0,6.0,48,0.00,,,0.00,Wunderground v.1.15,2013-10-07 14:35:00,
2013-10-07 09:40:00,65.6,44.3,30.08,NNE,16,5.0,5.0,46,0.00,,,0.00,Wunderground v.1.15,2013-10-07 14:40:00,
2013-10-07 09:41:00,65.6,44.3,30.08,NNE,16,4.0,5.0,46,0.00,,,0.00,Wunderground v.1.15,2013-10-07 14:41:00,
2013-10-07 09:43:00,66.0,44.0,30.08,NNE,27,4.0,5.0,45,0.00,,,0.00,Wunderground v.1.15,2013-10-07 14:43:00,
2013-10-07 09:45:00,66.3,44.3,30.08,NNE,23,4.0,5.0,45,0.00,,,0.00,Wunderground v.1.15,2013-10-07 14:45:00,
2013-10-07 09:46:00,66.4,44.4,30.08,NNE,28,4.0,5.0,45,0.00,,,0.00,Wunderground v.1.15,2013-10-07 14:46:00,
2013-10-07 09:47:00,66.6,44.6,30.08,NNE,30,4.0,5.0,45,0.00,,,0.00,Wunderground v.1.15,2013-10-07 14:47:00,
2013-10-07 09:48:00,66.8,44.2,30.08,NNE,28,4.0,6.0,44,0.00,,,0.00,Wunderground v.1.15,2013-10-07 14:48:00,
2013-10-07 09:50:00,67.1,44.4,30.08,North,8,3.0,5.0,44,0.00,,,0.00,Wunderground v.1.15,2013-10-07 14:50:00,
2013-10-07 09:52:00,67.3,44.6,30.08,North,359,3.0,5.0,44,0.00,,,0.00,Wunderground v.1.15,2013-10-07 14:52:00,
2013-10-07 09:55:00,67.8,43.9,30.08,NNE,14,4.0,6.0,42,0.00,,,0.00,Wunderground v.1.15,2013-10-07 14:55:00,
2013-10-07 09:56:00,68.1,44.7,30.08,NNE,23,4.0,6.0,43,0.00,,,0.00,Wunderground v.1.15,2013-10-07 14:56:00,
2013-10-07 09:58:00,68.4,44.4,30.08,NNE,23,3.0,6.0,42,0.00,,,0.00,Wunderground v.1.15,2013-10-07 14:58:00,
2013-10-07 10:00:00,68.8,44.1,30.08,NNE,20,3.0,3.0,41,0.00,,,0.00,Wunderground v.1.15,2013-10-07 15:00:00,
2013-10-07 10:02:00,69.1,44.4,30.08,NNE,17,3.0,5.0,41,0.00,,,0.00,Wunderground v.1.15,2013-10-07 15:02:00,
2013-10-07 10:03:00,69.3,44.6,30.08,NNE,30,3.0,5.0,41,0.00,,,0.00,Wunderground v.1.15,2013-10-07 15:03:00,
2013-10-07 10:06:00,69.6,43.5,30.08,NNE,20,3.0,6.0,39,0.00,,,0.00,Wunderground v.1.15,2013-10-07 15:06:00,
2013-10-07 10:07:00,69.8,44.4,30.08,NNE,20,3.0,6.0,40,0.00,,,0.00,Wunderground v.1.15,2013-10-07 15:07:00,
2013-10-07 10:08:00,69.9,45.1,30.08,NNE,20,3.0,6.0,41,0.00,,,0.00,Wunderground v.1.15,2013-10-07 15:08:00,
2013-10-07 10:10:00,70.3,45.5,30.08,NNE,20,3.0,3.0,41,0.00,,,0.00,Wunderground v.1.15,2013-10-07 15:10:00,
2013-10-07 10:12:00,70.6,45.7,30.08,NNE,20,3.0,5.0,41,0.00,,,0.00,Wunderground v.1.15,2013-10-07 15:12:00,
2013-10-07 10:13:00,70.8,43.9,30.08,NNE,21,3.0,5.0,38,0.00,,,0.00,Wunderground v.1.15,2013-10-07 15:13:00,
2013-10-07 10:17:00,71.5,43.8,30.08,North,10,2.0,5.0,37,0.00,,,0.00,Wunderground v.1.15,2013-10-07 15:17:00,
2013-10-07 10:20:00,72.0,43.6,30.08,North,10,2.0,2.0,36,0.00,,,0.00,Wunderground v.1.15,2013-10-07 15:20:00,
2013-10-07 10:23:00,72.0,43.6,30.08,NE,37,2.0,2.0,36,0.00,,,0.00,Wunderground v.1.15,2013-10-07 15:23:00,
2013-10-07 10:24:00,72.5,42.5,30.08,North,353,2.0,2.0,34,0.00,,,0.00,Wunderground v.1.15,2013-10-07 15:24:00,
2013-10-07 10:25:00,72.5,42.5,30.08,NNW,339,2.0,2.0,34,0.00,,,0.00,Wunderground v.1.15,2013-10-07 15:25:00,
2013-10-07 10:26:00,72.5,42.5,30.08,NNW,339,1.0,2.0,34,0.00,,,0.00,Wunderground v.1.15,2013-10-07 15:26:00,
2013-10-07 10:30:00,73.2,40.7,30.08,North,349,2.0,2.0,31,0.00,,,0.00,Wunderground v.1.15,2013-10-07 15:30:00,
2013-10-07 10:31:00,73.2,40.7,30.08,NNW,343,2.0,5.0,31,0.00,,,0.00,Wunderground v.1.15,2013-10-07 15:31:00,
2013-10-07 10:32:00,73.2,40.7,30.08,NNW,335,2.0,5.0,31,0.00,,,0.00,Wunderground v.1.15,2013-10-07 15:32:00,
2013-10-07 10:36:00,73.7,41.2,30.08,NNW,335,2.0,5.0,31,0.00,,,0.00,Wunderground v.1.15,2013-10-07 15:36:00,
2013-10-07 10:37:00,73.9,41.3,30.08,NNW,335,3.0,5.0,31,0.00,,,0.00,Wunderground v.1.15,2013-10-07 15:37:00,
2013-10-07 10:42:00,74.0,41.4,30.08,NNE,23,1.0,3.0,31,0.00,,,0.00,Wunderground v.1.15,2013-10-07 15:42:00,
2013-10-07 10:43:00,74.0,41.4,30.08,NNE,23,2.0,3.0,31,0.00,,,0.00,Wunderground v.1.15,2013-10-07 15:43:00,
2013-10-07 10:45:00,74.0,41.4,30.08,NNE,23,1.0,3.0,31,0.00,,,0.00,Wunderground v.1.15,2013-10-07 15:45:00,
2013-10-07 10:46:00,74.0,41.4,30.08,NNE,23,1.0,3.0,31,0.00,,,0.00,Wunderground v.1.15,2013-10-07 15:46:00,
2013-10-07 10:50:00,74.0,41.4,30.08,NE,40,2.0,3.0,31,0.00,,,0.00,Wunderground v.1.15,2013-10-07 15:50:00,
2013-10-07 10:51:00,74.0,41.4,30.08,NE,40,2.0,3.0,31,0.00,,,0.00,Wunderground v.1.15,2013-10-07 15:51:00,
2013-10-07 10:52:00,74.0,41.4,30.08,NE,41,2.0,3.0,31,0.00,,,0.00,Wunderground v.1.15,2013-10-07 15:52:00,
2013-10-07 10:55:00,74.0,41.4,30.08,NE,41,2.0,3.0,31,0.00,,,0.00,Wunderground v.1.15,2013-10-07 15:55:00,
2013-10-07 10:57:00,74.0,41.4,30.08,NE,52,2.0,3.0,31,0.00,,,0.00,Wunderground v.1.15,2013-10-07 15:57:00,
2013-10-07 11:02:00,74.0,41.4,30.08,NE,52,2.0,2.0,31,0.00,,,0.00,Wunderground v.1.15,2013-10-07 16:02:00,
2013-10-07 11:03:00,74.0,41.4,30.08,NE,52,2.0,2.0,31,0.00,,,0.00,Wunderground v.1.15,2013-10-07 16:03:00,
2013-10-07 11:04:00,74.0,41.4,30.08,NE,52,2.0,2.0,31,0.00,,,0.00,Wunderground v.1.15,2013-10-07 16:04:00,
2013-10-07 11:05:00,74.0,41.4,30.08,NE,52,2.0,2.0,31,0.00,,,0.00,Wunderground v.1.15,2013-10-07 16:05:00,
2013-10-07 11:06:00,74.0,41.4,30.08,NE,52,2.0,2.0,31,0.00,,,0.00,Wunderground v.1.15,2013-10-07 16:06:00,
2013-10-07 11:11:00,-999.9,-99.9,30.08,North,32767,-999.0,0.0,255,-99.99,,,0.00,Wunderground v.1.15,2013-10-07 16:11:00,
2013-10-07 11:12:00,-999.9,-99.9,30.08,North,32767,-999.0,0.0,255,-99.99,,,0.00,Wunderground v.1.15,2013-10-07 16:12:00,
2013-10-07 11:13:00,-999.9,-99.9,30.08,North,32767,-999.0,0.0,255,-99.99,,,0.00,Wunderground v.1.15,2013-10-07 16:13:00,
2013-10-07 11:15:00,-999.9,-99.9,30.08,North,32767,-999.0,0.0,255,-99.99,,,0.00,Wunderground v.1.15,2013-10-07 16:15:00,
2013-10-07 11:17:00,-999.9,-99.9,30.08,North,32767,-999.0,0.0,255,-99.99,,,0.00,Wunderground v.1.15,2013-10-07 16:17:00,
2013-10-07 11:21:00,-999.9,-99.9,30.08,North,32767,-999.0,0.0,255,-99.99,,,0.00,Wunderground v.1.15,2013-10-07 16:21:00,
2013-10-07 11:22:00,-999.9,-99.9,30.08,North,32767,-999.0,0.0,255,-99.99,,,0.00,Wunderground v.1.15,2013-10-07 16:22:00,
2013-10-07 11:23:00,-999.9,-99.9,30.08,North,32767,-999.0,0.0,255,-99.99,,,0.00,Wunderground v.1.15,2013-10-07 16:23:00,
2013-10-07 11:25:00,-999.9,-99.9,30.08,North,32767,-999.0,0.0,255,-99.99,,,0.00,Wunderground v.1.15,2013-10-07 16:25:00,
2013-10-07 11:28:00,-999.9,-99.9,30.08,North,32767,-999.0,0.0,255,-99.99,,,0.00,Wunderground v.1.15,2013-10-07 16:28:00,
2013-10-07 11:32:00,-999.9,-99.9,30.08,North,32767,-999.0,0.0,255,-99.99,,,0.00,Wunderground v.1.15,2013-10-07 16:32:00,
2013-10-07 11:34:00,-999.9,-99.9,30.08,North,32767,-999.0,0.0,255,-99.99,,,0.00,Wunderground v.1.15,2013-10-07 16:34:00,
2013-10-07 11:35:00,-999.9,-99.9,30.08,North,32767,-999.0,0.0,255,-99.99,,,0.00,Wunderground v.1.15,2013-10-07 16:35:00,
2013-10-07 11:36:00,-999.9,-99.9,30.08,North,32767,-999.0,0.0,255,-99.99,,,0.00,Wunderground v.1.15,2013-10-07 16:36:00,
2013-10-07 11:37:00,-999.9,-99.9,30.08,North,32767,-999.0,0.0,255,-99.99,,,0.00,Wunderground v.1.15,2013-10-07 16:37:00,
2013-10-07 11:41:00,-999.9,-99.9,30.08,North,32767,-999.0,0.0,255,-99.99,,,0.00,Wunderground v.1.15,2013-10-07 16:41:00,
2013-10-07 11:42:00,-999.9,-99.9,30.08,North,32767,-999.0,0.0,255,-99.99,,,0.00,Wunderground v.1.15,2013-10-07 16:42:00,
2013-10-07 11:46:00,-999.9,-99.9,30.08,North,32767,-999.0,0.0,255,-99.99,,,0.00,Wunderground v.1.15,2013-10-07 16:46:00,
2013-10-07 11:47:00,-999.9,-99.9,30.08,North,32767,-999.0,0.0,255,-99.99,,,0.00,Wunderground v.1.15,2013-10-07 16:47:00,
2013-10-07 11:51:00,-999.9,-99.9,30.08,North,32767,-999.0,0.0,255,-99.99,,,0.00,Wunderground v.1.15,2013-10-07 16:51:00,
2013-10-07 11:54:00,-999.9,-99.9,30.08,North,32767,-999.0,0.0,255,-99.99,,,0.00,Wunderground v.1.15,2013-10-07 16:54:00,
2013-10-07 11:55:00,-999.9,-99.9,30.08,North,32767,-999.0,0.0,255,-99.99,,,0.00,Wunderground v.1.15,2013-10-07 16:55:00,
2013-10-07 11:56:00,-999.9,-99.9,30.08,North,32767,-999.0,0.0,255,-99.99,,,0.00,Wunderground v.1.15,2013-10-07 16:56:00,
2013-10-07 11:57:00,-999.9,-99.9,30.08,North,32767,-999.0,0.0,255,-99.99,,,0.00,Wunderground v.1.15,2013-10-07 16:57:00,
2013-10-07 12:00:00,-999.9,-99.9,30.08,North,32767,-999.0,0.0,255,-99.99,,,0.00,Wunderground v.1.15,2013-10-07 17:00:00,
2013-10-07 12:02:00,-999.9,-99.9,30.07,North,32767,-999.0,0.0,255,-99.99,,,0.00,Wunderground v.1.15,2013-10-07 17:02:00,
2013-10-07 12:04:00,-999.9,-99.9,30.07,North,32767,-999.0,0.0,255,-99.99,,,0.00,Wunderground v.1.15,2013-10-07 17:04:00,
2013-10-07 12:06:00,-999.9,-99.9,30.07,North,32767,-999.0,0.0,255,-99.99,,,0.00,Wunderground v.1.15,2013-10-07 17:06:00,
2013-10-07 12:10:00,-999.9,-99.9,30.07,North,32767,-999.0,0.0,255,-99.99,,,0.00,Wunderground v.1.15,2013-10-07 17:10:00,
2013-10-07 12:11:00,-999.9,-99.9,30.07,North,32767,-999.0,0.0,255,-99.99,,,0.00,Wunderground v.1.15,2013-10-07 17:11:00,
2013-10-07 12:12:00,-999.9,-99.9,30.07,North,32767,-999.0,0.0,255,-99.99,,,0.00,Wunderground v.1.15,2013-10-07 17:12:00,
2013-10-07 12:13:00,-999.9,-99.9,30.07,North,32767,-999.0,0.0,255,-99.99,,,0.00,Wunderground v.1.15,2013-10-07 17:13:00,
2013-10-07 12:14:00,-999.9,-99.9,30.07,North,32767,-999.0,0.0,255,-99.99,,,0.00,Wunderground v.1.15,2013-10-07 17:14:00,
2013-10-07 12:16:00,-999.9,-99.9,30.07,North,32767,-999.0,0.0,255,-99.99,,,0.00,Wunderground v.1.15,2013-10-07 17:16:00,
2013-10-07 12:18:00,-999.9,-99.9,30.08,North,32767,-999.0,0.0,255,-99.99,,,0.00,Wunderground v.1.15,2013-10-07 17:18:00,
2013-10-07 12:21:00,-999.9,-99.9,30.08,North,32767,-999.0,0.0,255,-99.99,,,0.00,Wunderground v.1.15,2013-10-07 17:21:00,
2013-10-07 12:22:00,-999.9,-99.9,30.08,North,32767,-999.0,0.0,255,-99.99,,,0.00,Wunderground v.1.15,2013-10-07 17:22:00,
2013-10-07 12:24:00,-999.9,-99.9,30.08,North,32767,-999.0,0.0,255,-99.99,,,0.00,Wunderground v.1.15,2013-10-07 17:24:00,
2013-10-07 12:25:00,-999.9,-99.9,30.08,North,32767,-999.0,0.0,255,-99.99,,,0.00,Wunderground v.1.15,2013-10-07 17:25:00,
2013-10-07 12:28:00,-999.9,-99.9,30.08,North,32767,-999.0,0.0,255,-99.99,,,0.00,Wunderground v.1.15,2013-10-07 17:28:00,
2013-10-07 12:32:00,-999.9,-99.9,30.07,North,32767,-999.0,0.0,255,-99.99,,,0.00,Wunderground v.1.15,2013-10-07 17:32:00,
2013-10-07 12:33:00,-999.9,-99.9,30.07,North,32767,-999.0,0.0,255,-99.99,,,0.00,Wunderground v.1.15,2013-10-07 17:33:00,
2013-10-07 12:34:00,-999.9,-99.9,30.07,North,32767,-999.0,0.0,255,-99.99,,,0.00,Wunderground v.1.15,2013-10-07 17:34:00,
2013-10-07 12:37:00,-999.9,-99.9,30.07,North,32767,-999.0,0.0,255,-99.99,,,0.00,Wunderground v.1.15,2013-10-07 17:37:00,
2013-10-07 12:38:00,-999.9,-99.9,30.07,North,32767,-999.0,0.0,255,-99.99,,,0.00,Wunderground v.1.15,2013-10-07 17:38:00,
2013-10-07 12:40:00,-999.9,-99.9,30.07,North,32767,-999.0,0.0,255,-99.99,,,0.00,Wunderground v.1.15,2013-10-07 17:40:00,
2013-10-07 12:41:00,-999.9,-99.9,30.07,North,32767,-999.0,0.0,255,-99.99,,,0.00,Wunderground v.1.15,2013-10-07 17:41:00,
2013-10-07 12:44:00,-999.9,-99.9,30.07,North,32767,-999.0,0.0,255,-99.99,,,0.00,Wunderground v.1.15,2013-10-07 17:44:00,
2013-10-07 12:45:00,-999.9,-99.9,30.07,North,32767,-999.0,0.0,255,-99.99,,,0.00,Wunderground v.1.15,2013-10-07 17:45:00,
2013-10-07 12:48:00,-999.9,-99.9,30.06,North,32767,-999.0,0.0,255,-99.99,,,0.00,Wunderground v.1.15,2013-10-07 17:48:00,
2013-10-07 12:50:00,-999.9,-99.9,30.06,North,32767,-999.0,0.0,255,-99.99,,,0.00,Wunderground v.1.15,2013-10-07 17:50:00,
2013-10-07 12:52:00,-999.9,-99.9,30.06,North,32767,-999.0,0.0,255,-99.99,,,0.00,Wunderground v.1.15,2013-10-07 17:52:00,
2013-10-07 12:55:00,-999.9,-99.9,30.06,North,32767,-999.0,0.0,255,-99.99,,,0.00,Wunderground v.1.15,2013-10-07 17:55:00,
2013-10-07 12:57:00,-999.9,-99.9,30.06,North,32767,-999.0,0.0,255,-99.99,,,0.00,Wunderground v.1.15,2013-10-07 17:57:00,
2013-10-07 12:58:00,-999.9,-99.9,30.06,North,32767,-999.0,0.0,255,-99.99,,,0.00,Wunderground v.1.15,2013-10-07 17:58:00,
2013-10-07 13:00:00,-999.9,-99.9,30.06,North,32767,-999.0,0.0,255,-99.99,,,0.00,Wunderground v.1.15,2013-10-07 18:00:00,
2013-10-07 13:03:00,-999.9,-99.9,30.06,North,32767,-999.0,0.0,255,-99.99,,,0.00,Wunderground v.1.15,2013-10-07 18:03:00,
2013-10-07 13:07:00,79.8,37.6,30.06,NNW,330,2.0,8.0,22,0.00,,,0.00,Wunderground v.1.15,2013-10-07 18:07:00,
2013-10-07 13:08:00,79.8,37.6,30.06,NNW,330,2.0,8.0,22,0.00,,,0.00,Wunderground v.1.15,2013-10-07 18:08:00,
2013-10-07 13:10:00,79.9,38.8,30.06,NW,318,4.0,7.0,23,0.00,,,0.00,Wunderground v.1.15,2013-10-07 18:10:00,
2013-10-07 13:12:00,79.9,38.8,30.06,NW,311,5.0,7.0,23,0.00,,,0.00,Wunderground v.1.15,2013-10-07 18:12:00,
2013-10-07 13:13:00,79.9,37.6,30.06,NW,305,5.0,7.0,22,0.00,,,0.00,Wunderground v.1.15,2013-10-07 18:13:00,
2013-10-07 13:16:00,79.8,37.6,30.06,NW,312,5.0,7.0,22,0.00,,,0.00,Wunderground v.1.15,2013-10-07 18:16:00,
2013-10-07 13:17:00,79.8,38.7,30.06,NE,52,5.0,7.0,23,0.00,,,0.00,Wunderground v.1.15,2013-10-07 18:17:00,
2013-10-07 13:18:00,79.8,38.7,30.04,NE,47,4.0,7.0,23,0.00,,,0.00,Wunderground v.1.15,2013-10-07 18:18:00,
2013-10-07 13:20:00,79.8,38.7,30.04,East,88,4.0,4.0,23,0.00,,,0.00,Wunderground v.1.15,2013-10-07 18:20:00,
2013-10-07 13:23:00,80.1,38.9,30.04,North,7,3.0,7.0,23,0.00,,,0.00,Wunderground v.1.15,2013-10-07 18:23:00,
2013-10-07 13:24:00,80.1,38.9,30.04,North,0,3.0,7.0,23,0.00,,,0.00,Wunderground v.1.15,2013-10-07 18:24:00,
2013-10-07 13:25:00,80.1,38.9,30.04,North,356,3.0,7.0,23,0.00,,,0.00,Wunderground v.1.15,2013-10-07 18:25:00,
2013-10-07 13:27:00,80.1,37.8,30.04,North,359,3.0,7.0,22,0.00,,,0.00,Wunderground v.1.15,2013-10-07 18:27:00,
2013-10-07 13:30:00,80.1,37.8,30.04,NNW,330,4.0,6.0,22,0.00,,,0.00,Wunderground v.1.15,2013-10-07 18:30:00,
2013-10-07 13:33:00,79.9,37.6,30.03,WNW,296,5.0,9.0,22,0.00,,,0.00,Wunderground v.1.15,2013-10-07 18:33:00,
2013-10-07 13:34:00,79.9,37.6,30.03,NW,306,5.0,9.0,22,0.00,,,0.00,Wunderground v.1.15,2013-10-07 18:34:00,
2013-10-07 13:35:00,79.8,36.4,30.03,ENE,72,4.0,9.0,21,0.00,,,0.00,Wunderground v.1.15,2013-10-07 18:35:00,
2013-10-07 13:36:00,79.8,37.6,30.03,NE,55,4.0,9.0,22,0.00,,,0.00,Wunderground v.1.15,2013-10-07 18:36:00,
2013-10-07 13:40:00,79.9,37.6,30.03,NE,52,4.0,4.0,22,0.00,,,0.00,Wunderground v.1.15,2013-10-07 18:40:00,
2013-10-07 13:41:00,80.1,37.8,30.03,NE,52,3.0,4.0,22,0.00,,,0.00,Wunderground v.1.15,2013-10-07 18:41:00,
2013-10-07 13:42:00,80.3,39.1,30.03,NE,52,3.0,4.0,23,0.00,,,0.00,Wunderground v.1.15,2013-10-07 18:42:00,
2013-10-07 13:46:00,80.9,36.1,30.03,North,356,3.0,5.0,20,0.00,,,0.00,Wunderground v.1.15,2013-10-07 18:46:00,
2013-10-07 13:47:00,80.9,36.1,30.02,NNW,347,3.0,5.0,20,0.00,,,0.00,Wunderground v.1.15,2013-10-07 18:47:00,
2013-10-07 13:50:00,81.1,37.5,30.02,NE,40,3.0,4.0,21,0.00,,,0.00,Wunderground v.1.15,2013-10-07 18:50:00,
2013-10-07 13:51:00,80.9,36.1,30.02,NNE,25,3.0,7.0,20,0.00,,,0.00,Wunderground v.1.15,2013-10-07 18:51:00,
2013-10-07 13:53:00,80.7,37.1,30.02,NNW,344,4.0,7.0,21,0.00,,,0.00,Wunderground v.1.15,2013-10-07 18:53:00,
2013-10-07 13:55:00,80.5,37.0,30.02,NE,55,4.0,7.0,21,0.00,,,0.00,Wunderground v.1.15,2013-10-07 18:55:00,
2013-10-07 13:56:00,80.5,37.0,30.02,NE,55,4.0,7.0,21,0.00,,,0.00,Wunderground v.1.15,2013-10-07 18:56:00,
2013-10-07 14:01:00,80.7,37.1,30.02,West,278,3.0,3.0,21,0.00,,,0.00,Wunderground v.1.15,2013-10-07 19:01:00,
2013-10-07 14:02:00,80.9,37.3,30.01,WNW,285,3.0,3.0,21,0.00,,,0.00,Wunderground v.1.15,2013-10-07 19:02:00,
2013-10-07 14:03:00,81.1,39.8,30.01,WNW,284,3.0,3.0,23,0.00,,,0.00,Wunderground v.1.15,2013-10-07 19:03:00,
2013-10-07 14:04:00,81.1,37.5,30.01,NE,45,2.0,8.0,21,0.00,,,0.00,Wunderground v.1.15,2013-10-07 19:04:00,
2013-10-07 14:06:00,81.2,37.5,30.01,NNE,13,3.0,8.0,21,0.00,,,0.00,Wunderground v.1.15,2013-10-07 19:06:00,
2013-10-07 14:11:00,81.4,37.7,30.01,ENE,71,4.0,4.0,21,0.00,,,0.00,Wunderground v.1.15,2013-10-07 19:11:00,
2013-10-07 14:12:00,81.2,36.3,30.01,ENE,71,3.0,4.0,20,0.00,,,0.00,Wunderground v.1.15,2013-10-07 19:12:00,
2013-10-07 14:15:00,81.4,37.7,30.01,North,11,3.0,5.0,21,0.00,,,0.00,Wunderground v.1.15,2013-10-07 19:15:00,
2013-10-07 14:16:00,81.4,37.7,30.01,North,11,3.0,5.0,21,0.00,,,0.00,Wunderground v.1.15,2013-10-07 19:16:00,
2013-10-07 14:17:00,81.6,37.9,30.01,NE,54,2.0,6.0,21,0.00,,,0.00,Wunderground v.1.15,2013-10-07 19:17:00,
2013-10-07 14:21:00,81.6,37.9,30.01,SE,130,2.0,6.0,21,0.00,,,0.00,Wunderground v.1.15,2013-10-07 19:21:00,
2013-10-07 14:22:00,81.6,40.2,30.01,East,97,2.0,6.0,23,0.00,,,0.00,Wunderground v.1.15,2013-10-07 19:22:00,
2013-10-07 14:27:00,81.4,37.7,30.01,NE,51,3.0,6.0,21,0.00,,,0.00,Wunderground v.1.15,2013-10-07 19:27:00,
2013-10-07 14:28:00,81.6,40.2,30.01,NE,51,3.0,6.0,23,0.00,,,0.00,Wunderground v.1.15,2013-10-07 19:28:00,
2013-10-07 14:32:00,81.6,39.1,30.00,NE,48,3.0,3.0,22,0.00,,,0.00,Wunderground v.1.15,2013-10-07 19:32:00,
2013-10-07 14:33:00,81.6,39.1,30.00,East,88,2.0,5.0,22,0.00,,,0.00,Wunderground v.1.15,2013-10-07 19:33:00,
2013-10-07 14:34:00,81.4,37.7,30.00,East,88,2.0,5.0,21,0.00,,,0.00,Wunderground v.1.15,2013-10-07 19:34:00,
2013-10-07 14:36:00,81.2,37.5,30.00,ESE,114,2.0,5.0,21,0.00,,,0.00,Wunderground v.1.15,2013-10-07 19:36:00,
2013-10-07 14:41:00,81.6,39.1,30.00,NE,49,2.0,8.0,22,0.00,,,0.00,Wunderground v.1.15,2013-10-07 19:41:00,
2013-10-07 14:42:00,81.6,37.9,30.00,NE,49,3.0,8.0,21,0.00,,,0.00,Wunderground v.1.15,2013-10-07 19:42:00,
2013-10-07 14:44:00,81.4,38.9,30.00,NE,47,3.0,8.0,22,0.00,,,0.00,Wunderground v.1.15,2013-10-07 19:44:00,
2013-10-07 14:46:00,81.2,38.7,30.00,NE,47,3.0,8.0,22,0.00,,,0.00,Wunderground v.1.15,2013-10-07 19:46:00,
2013-10-07 14:47:00,81.2,37.5,29.99,NE,47,2.0,8.0,21,0.00,,,0.00,Wunderground v.1.15,2013-10-07 19:47:00,
2013-10-07 14:48:00,81.4,40.0,29.99,NE,47,2.0,8.0,23,0.00,,,0.00,Wunderground v.1.15,2013-10-07 19:48:00,
2013-10-07 14:51:00,81.8,40.4,29.99,NNE,17,2.0,3.0,23,0.00,,,0.00,Wunderground v.1.15,2013-10-07 19:51:00,
2013-10-07 14:53:00,82.0,40.5,29.99,NE,38,2.0,3.0,23,0.00,,,0.00,Wunderground v.1.15,2013-10-07 19:53:00,
2013-10-07 14:54:00,82.2,40.7,29.99,East,99,2.0,3.0,23,0.00,,,0.00,Wunderground v.1.15,2013-10-07 19:54:00,
2013-10-07 14:56:00,82.0,39.4,29.99,East,89,2.0,3.0,22,0.00,,,0.00,Wunderground v.1.15,2013-10-07 19:56:00,
2013-10-07 15:01:00,82.4,39.7,29.99,East,82,2.0,3.0,22,0.00,,,0.00,Wunderground v.1.15,2013-10-07 20:01:00,
2013-10-07 15:02:00,82.4,39.7,29.99,East,82,2.0,3.0,22,0.00,,,0.00,Wunderground v.1.15,2013-10-07 20:02:00,
2013-10-07 15:06:00,82.4,40.9,29.99,NW,304,2.0,6.0,23,0.00,,,0.00,Wunderground v.1.15,2013-10-07 20:06:00,
2013-10-07 15:07:00,82.4,40.9,29.99,NW,312,3.0,6.0,23,0.00,,,0.00,Wunderground v.1.15,2013-10-07 20:07:00,
2013-10-07 15:11:00,82.0,40.5,29.99,West,281,3.0,3.0,23,0.00,,,0.00,Wunderground v.1.15,2013-10-07 20:11:00,
2013-10-07 15:12:00,82.0,41.6,29.99,NNE,25,4.0,7.0,24,0.00,,,0.00,Wunderground v.1.15,2013-10-07 20:12:00,
2013-10-07 15:13:00,81.8,40.4,29.99,NNE,30,4.0,7.0,23,0.00,,,0.00,Wunderground v.1.15,2013-10-07 20:13:00,
2013-10-07 15:16:00,82.0,41.6,29.99,NE,34,3.0,7.0,24,0.00,,,0.00,Wunderground v.1.15,2013-10-07 20:16:00,
2013-10-07 15:17:00,82.2,42.9,29.98,WNW,302,2.0,7.0,25,0.00,,,0.00,Wunderground v.1.15,2013-10-07 20:17:00,
2013-10-07 15:18:00,82.2,41.8,29.98,West,267,3.0,7.0,24,0.00,,,0.00,Wunderground v.1.15,2013-10-07 20:18:00,
2013-10-07 15:20:00,82.4,40.9,29.98,WNW,284,2.0,4.0,23,0.00,,,0.00,Wunderground v.1.15,2013-10-07 20:20:00,
2013-10-07 15:21:00,82.6,42.1,29.98,NW,305,3.0,10.0,24,0.00,,,0.00,Wunderground v.1.15,2013-10-07 20:21:00,
2013-10-07 15:22:00,82.4,40.9,29.98,WNW,288,3.0,10.0,23,0.00,,,0.00,Wunderground v.1.15,2013-10-07 20:22:00,
2013-10-07 15:24:00,82.4,42.0,29.98,West,278,3.0,10.0,24,0.00,,,0.00,Wunderground v.1.15,2013-10-07 20:24:00,
2013-10-07 15:26:00,82.0,40.5,29.98,West,260,4.0,10.0,23,0.00,,,0.00,Wunderground v.1.15,2013-10-07 20:26:00,
2013-10-07 15:27:00,82.0,40.5,29.98,West,265,5.0,10.0,23,0.00,,,0.00,Wunderground v.1.15,2013-10-07 20:27:00,
2013-10-07 15:28:00,82.0,42.7,29.98,West,265,5.0,10.0,25,0.00,,,0.00,Wunderground v.1.15,2013-10-07 20:28:00,
2013-10-07 15:31:00,82.4,42.0,29.98,West,261,4.0,4.0,24,0.00,,,0.00,Wunderground v.1.15,2013-10-07 20:31:00,
2013-10-07 15:33:00,82.8,41.2,29.97,West,261,3.0,4.0,23,0.00,,,0.00,Wunderground v.1.15,2013-10-07 20:33:00,
2013-10-07 15:34:00,83.0,41.4,29.97,North,356,2.0,6.0,23,0.00,,,0.00,Wunderground v.1.15,2013-10-07 20:34:00,
2013-10-07 15:35:00,83.0,40.2,29.97,North,1,2.0,6.0,22,0.00,,,0.00,Wunderground v.1.15,2013-10-07 20:35:00,
2013-10-07 15:36:00,83.0,41.4,29.97,NW,322,2.0,6.0,23,0.00,,,0.00,Wunderground v.1.15,2013-10-07 20:36:00,
2013-10-07 15:37:00,83.2,41.5,29.97,NW,323,1.0,6.0,23,0.00,,,0.00,Wunderground v.1.15,2013-10-07 20:37:00,
2013-10-07 15:38:00,83.2,41.5,29.97,NE,34,1.0,6.0,23,0.00,,,0.00,Wunderground v.1.15,2013-10-07 20:38:00,
2013-10-07 15:43:00,83.2,42.6,29.97,NW,325,2.0,5.0,24,0.00,,,0.00,Wunderground v.1.15,2013-10-07 20:43:00,
2013-10-07 15:44:00,83.2,42.6,29.97,NW,325,2.0,5.0,24,0.00,,,0.00,Wunderground v.1.15,2013-10-07 20:44:00,
2013-10-07 15:46:00,83.4,42.8,29.97,NW,325,2.0,5.0,24,0.00,,,0.00,Wunderground v.1.15,2013-10-07 20:46:00,
2013-10-07 15:47:00,83.6,43.0,29.97,NW,326,2.0,5.0,24,0.00,,,0.00,Wunderground v.1.15,2013-10-07 20:47:00,
2013-10-07 15:48:00,83.8,42.0,29.97,NW,326,1.0,5.0,23,0.00,,,0.00,Wunderground v.1.15,2013-10-07 20:48:00,
2013-10-07 15:52:00,84.0,42.2,29.97,NNW,328,1.0,2.0,23,0.00,,,0.00,Wunderground v.1.15,2013-10-07 20:52:00,
2013-10-07 15:53:00,84.0,42.2,29.97,NNW,328,1.0,2.0,23,0.00,,,0.00,Wunderground v.1.15,2013-10-07 20:53:00,
2013-10-07 15:54:00,84.0,42.2,29.97,NNW,328,1.0,2.0,23,0.00,,,0.00,Wunderground v.1.15,2013-10-07 20:54:00,
2013-10-07 15:55:00,84.0,42.2,29.97,NW,305,1.0,2.0,23,0.00,,,0.00,Wunderground v.1.15,2013-10-07 20:55:00,
2013-10-07 16:00:00,83.8,43.2,29.97,West,277,2.0,2.0,24,0.00,,,0.00,Wunderground v.1.15,2013-10-07 21:00:00,
2013-10-07 16:01:00,83.8,43.2,29.97,West,277,2.0,2.0,24,0.00,,,0.00,Wunderground v.1.15,2013-10-07 21:01:00,
2013-10-07 16:02:00,84.1,43.4,29.96,West,277,2.0,2.0,24,0.00,,,0.00,Wunderground v.1.15,2013-10-07 21:02:00,
2013-10-07 16:04:00,84.1,42.3,29.96,West,270,2.0,3.0,23,0.00,,,0.00,Wunderground v.1.15,2013-10-07 21:04:00,
2013-10-07 16:05:00,84.1,42.3,29.96,West,270,2.0,3.0,23,0.00,,,0.00,Wunderground v.1.15,2013-10-07 21:05:00,
2013-10-07 16:06:00,84.1,42.3,29.96,West,278,2.0,7.0,23,0.00,,,0.00,Wunderground v.1.15,2013-10-07 21:06:00,
2013-10-07 16:07:00,84.1,42.3,29.96,West,278,3.0,7.0,23,0.00,,,0.00,Wunderground v.1.15,2013-10-07 21:07:00,
2013-10-07 16:10:00,83.4,41.7,29.96,SE,141,3.0,3.0,23,0.00,,,0.00,Wunderground v.1.15,2013-10-07 21:10:00,
2013-10-07 16:11:00,83.4,41.7,29.96,SE,141,3.0,3.0,23,0.00,,,0.00,Wunderground v.1.15,2013-10-07 21:11:00,
2013-10-07 16:13:00,83.4,41.7,29.96,SE,141,3.0,3.0,23,0.00,,,0.00,Wunderground v.1.15,2013-10-07 21:13:00,
2013-10-07 16:15:00,83.4,41.7,29.96,SE,141,0.0,3.0,23,0.00,,,0.00,Wunderground v.1.15,2013-10-07 21:15:00,
2013-10-07 16:16:00,83.4,41.7,29.96,ENE,73,1.0,3.0,23,0.00,,,0.00,Wunderground v.1.15,2013-10-07 21:16:00,
2013-10-07 16:18:00,83.4,41.7,29.96,ENE,68,2.0,6.0,23,0.00,,,0.00,Wunderground v.1.15,2013-10-07 21:18:00,
2013-10-07 16:20:00,83.0,42.5,29.96,ENE,59,2.0,2.0,24,0.00,,,0.00,Wunderground v.1.15,2013-10-07 21:20:00,
2013-10-07 16:21:00,83.0,42.5,29.96,ENE,59,2.0,2.0,24,0.00,,,0.00,Wunderground v.1.15,2013-10-07 21:21:00,
2013-10-07 16:24:00,83.2,43.7,29.96,NW,315,2.0,4.0,25,0.00,,,0.00,Wunderground v.1.15,2013-10-07 21:24:00,
2013-10-07 16:26:00,83.4,42.8,29.96,NW,315,3.0,4.0,24,0.00,,,0.00,Wunderground v.1.15,2013-10-07 21:26:00,
2013-10-07 16:30:00,83.2,40.4,29.96,North,0,3.0,3.0,22,0.00,,,0.00,Wunderground v.1.15,2013-10-07 21:30:00,
2013-10-07 16:32:00,83.4,41.7,29.95,North,0,2.0,3.0,23,0.00,,,0.00,Wunderground v.1.15,2013-10-07 21:32:00,
2013-10-07 16:33:00,83.6,43.0,29.95,NNW,337,2.0,3.0,24,0.00,,,0.00,Wunderground v.1.15,2013-10-07 21:33:00,
2013-10-07 16:36:00,83.8,42.0,29.95,NNW,337,2.0,3.0,23,0.00,,,0.00,Wunderground v.1.15,2013-10-07 21:36:00,
2013-10-07 16:40:00,84.0,42.2,29.95,NNW,339,1.0,2.0,23,0.00,,,0.00,Wunderground v.1.15,2013-10-07 21:40:00,
2013-10-07 16:41:00,84.0,43.3,29.95,North,356,1.0,5.0,24,0.00,,,0.00,Wunderground v.1.15,2013-10-07 21:41:00,
2013-10-07 16:42:00,83.8,40.9,29.95,NNE,31,1.0,5.0,22,0.00,,,0.00,Wunderground v.1.15,2013-10-07 21:42:00,
2013-10-07 16:43:00,83.8,43.2,29.95,NNE,31,1.0,5.0,24,0.00,,,0.00,Wunderground v.1.15,2013-10-07 21:43:00,
2013-10-07 16:44:00,83.6,41.9,29.95,NNE,31,1.0,5.0,23,0.00,,,0.00,Wunderground v.1.15,2013-10-07 21:44:00,
2013-10-07 16:46:00,83.8,44.2,29.95,NNE,31,1.0,5.0,25,0.00,,,0.00,Wunderground v.1.15,2013-10-07 21:46:00,
2013-10-07 16:47:00,83.8,43.2,29.95,NNE,30,2.0,5.0,24,0.00,,,0.00,Wunderground v.1.15,2013-10-07 21:47:00,
2013-10-07 16:50:00,83.8,42.0,29.95,NW,308,2.0,5.0,23,0.00,,,0.00,Wunderground v.1.15,2013-10-07 21:50:00,
2013-10-07 16:51:00,83.8,43.2,29.95,NW,308,3.0,5.0,24,0.00,,,0.00,Wunderground v.1.15,2013-10-07 21:51:00,
2013-10-07 16:54:00,83.6,41.9,29.95,NW,308,3.0,5.0,23,0.00,,,0.00,Wunderground v.1.15,2013-10-07 21:54:00,
2013-10-07 16:56:00,83.6,40.7,29.95,NW,308,2.0,5.0,22,0.00,,,0.00,Wunderground v.1.15,2013-10-07 21:56:00,
2013-10-07 16:57:00,83.8,42.0,29.95,NW,308,2.0,5.0,23,0.00,,,0.00,Wunderground v.1.15,2013-10-07 21:57:00,
2013-10-07 16:58:00,83.8,43.2,29.95,NW,308,2.0,5.0,24,0.00,,,0.00,Wunderground v.1.15,2013-10-07 21:58:00,
2013-10-07 17:02:00,83.8,42.0,29.95,South,176,1.0,1.0,23,0.00,,,0.00,Wunderground v.1.15,2013-10-07 22:02:00,
2013-10-07 17:03:00,84.0,42.2,29.95,South,176,1.0,1.0,23,0.00,,,0.00,Wunderground v.1.15,2013-10-07 22:03:00,
2013-10-07 17:04:00,84.0,42.2,29.95,South,176,0.0,1.0,23,0.00,,,0.00,Wunderground v.1.15,2013-10-07 22:04:00,
2013-10-07 17:05:00,84.0,42.2,29.95,South,178,1.0,1.0,23,0.00,,,0.00,Wunderground v.1.15,2013-10-07 22:05:00,
2013-10-07 17:11:00,84.1,42.3,29.95,South,191,1.0,3.0,23,0.00,,,0.00,Wunderground v.1.15,2013-10-07 22:11:00,
2013-10-07 17:15:00,84.3,42.5,29.95,South,191,1.0,3.0,23,0.00,,,0.00,Wunderground v.1.15,2013-10-07 22:15:00,
2013-10-07 17:17:00,84.3,42.5,29.94,SE,143,1.0,3.0,23,0.00,,,0.00,Wunderground v.1.15,2013-10-07 22:17:00,
2013-10-07 17:18:00,84.5,42.6,29.94,WNW,294,1.0,6.0,23,0.00,,,0.00,Wunderground v.1.15,2013-10-07 22:18:00,
2013-10-07 17:21:00,84.3,42.5,29.94,North,0,2.0,5.0,23,0.00,,,0.00,Wunderground v.1.15,2013-10-07 22:21:00,
2013-10-07 17:23:00,84.1,42.3,29.94,North,6,2.0,5.0,23,0.00,,,0.00,Wunderground v.1.15,2013-10-07 22:23:00,
2013-10-07 17:26:00,83.8,42.0,29.94,NE,37,4.0,6.0,23,0.00,,,0.00,Wunderground v.1.15,2013-10-07 22:26:00,
2013-10-07 17:28:00,83.6,41.9,29.94,NNE,14,4.0,6.0,23,0.00,,,0.00,Wunderground v.1.15,2013-10-07 22:28:00,
2013-10-07 17:31:00,83.4,42.8,29.94,North,0,3.0,4.0,24,0.00,,,0.00,Wunderground v.1.15,2013-10-07 22:31:00,
2013-10-07 17:33:00,83.4,42.8,29.94,North,353,3.0,4.0,24,0.00,,,0.00,Wunderground v.1.15,2013-10-07 22:33:00,
2013-10-07 17:34:00,83.6,43.0,29.94,North,353,3.0,4.0,24,0.00,,,0.00,Wunderground v.1.15,2013-10-07 22:34:00,
2013-10-07 17:37:00,83.6,41.9,29.94,North,0,3.0,6.0,23,0.00,,,0.00,Wunderground v.1.15,2013-10-07 22:37:00,
2013-10-07 17:38:00,83.6,41.9,29.94,North,0,3.0,6.0,23,0.00,,,0.00,Wunderground v.1.15,2013-10-07 22:38:00,
2013-10-07 17:42:00,83.6,43.0,29.94,North,359,3.0,5.0,24,0.00,,,0.00,Wunderground v.1.15,2013-10-07 22:42:00,
2013-10-07 17:44:00,83.6,43.0,29.94,North,0,3.0,5.0,24,0.00,,,0.00,Wunderground v.1.15,2013-10-07 22:44:00,
2013-10-07 17:46:00,83.4,41.7,29.94,NNE,14,3.0,5.0,23,0.00,,,0.00,Wunderground v.1.15,2013-10-07 22:46:00,
2013-10-07 17:48:00,83.2,42.6,29.94,NNE,14,3.0,5.0,24,0.00,,,0.00,Wunderground v.1.15,2013-10-07 22:48:00,
2013-10-07 17:50:00,83.2,42.6,29.94,NE,35,3.0,3.0,24,0.00,,,0.00,Wunderground v.1.15,2013-10-07 22:50:00,
2013-10-07 17:52:00,83.2,41.5,29.94,NE,35,2.0,3.0,23,0.00,,,0.00,Wunderground v.1.15,2013-10-07 22:52:00,
2013-10-07 17:56:00,83.0,42.5,29.94,ENE,58,1.0,3.0,24,0.00,,,0.00,Wunderground v.1.15,2013-10-07 22:56:00,
2013-10-07 17:57:00,83.0,43.5,29.94,ENE,61,1.0,3.0,25,0.00,,,0.00,Wunderground v.1.15,2013-10-07 22:57:00,
2013-10-07 17:58:00,82.8,42.3,29.94,ENE,73,1.0,3.0,24,0.00,,,0.00,Wunderground v.1.15,2013-10-07 22:58:00,
2013-10-07 18:01:00,82.8,42.3,29.94,ENE,72,1.0,3.0,24,0.00,,,0.00,Wunderground v.1.15,2013-10-07 23:01:00,
2013-10-07 18:04:00,82.6,43.2,29.94,East,83,2.0,5.0,25,0.00,,,0.00,Wunderground v.1.15,2013-10-07 23:04:00,
2013-10-07 18:06:00,82.4,42.0,29.94,East,93,2.0,5.0,24,0.00,,,0.00,Wunderground v.1.15,2013-10-07 23:06:00,
2013-10-07 18:08:00,82.2,42.9,29.94,East,93,2.0,5.0,25,0.00,,,0.00,Wunderground v.1.15,2013-10-07 23:08:00,
2013-10-07 18:11:00,82.2,42.9,29.94,East,96,2.0,2.0,25,0.00,,,0.00,Wunderground v.1.15,2013-10-07 23:11:00,
2013-10-07 18:12:00,82.2,42.9,29.94,East,96,1.0,2.0,25,0.00,,,0.00,Wunderground v.1.15,2013-10-07 23:12:00,
2013-10-07 18:14:00,82.2,43.9,29.94,East,96,1.0,2.0,26,0.00,,,0.00,Wunderground v.1.15,2013-10-07 23:14:00,
2013-10-07 18:15:00,82.2,43.9,29.94,East,96,1.0,2.0,26,0.00,,,0.00,Wunderground v.1.15,2013-10-07 23:15:00,
2013-10-07 18:17:00,82.0,43.7,29.94,East,93,1.0,2.0,26,0.00,,,0.00,Wunderground v.1.15,2013-10-07 23:17:00,
2013-10-07 18:21:00,82.0,43.7,29.94,East,93,1.0,1.0,26,0.00,,,0.00,Wunderground v.1.15,2013-10-07 23:21:00,
2013-10-07 18:22:00,81.8,43.6,29.94,East,93,1.0,1.0,26,0.00,,,0.00,Wunderground v.1.15,2013-10-07 23:22:00,
2013-10-07 18:23:00,81.8,43.6,29.94,East,93,1.0,1.0,26,0.00,,,0.00,Wunderground v.1.15,2013-10-07 23:23:00,
2013-10-07 18:24:00,81.8,43.6,29.94,East,93,1.0,1.0,26,0.00,,,0.00,Wunderground v.1.15,2013-10-07 23:24:00,
2013-10-07 18:26:00,81.8,43.6,29.94,East,93,1.0,2.0,26,0.00,,,0.00,Wunderground v.1.15,2013-10-07 23:26:00,
2013-10-07 18:27:00,81.8,43.6,29.94,East,93,1.0,2.0,26,0.00,,,0.00,Wunderground v.1.15,2013-10-07 23:27:00,
2013-10-07 18:28:00,81.6,43.4,29.94,East,93,1.0,2.0,26,0.00,,,0.00,Wunderground v.1.15,2013-10-07 23:28:00,
2013-10-07 18:31:00,81.6,44.4,29.94,East,93,1.0,1.0,27,0.00,,,0.00,Wunderground v.1.15,2013-10-07 23:31:00,
2013-10-07 18:32:00,81.4,43.2,29.95,East,93,1.0,2.0,26,0.00,,,0.00,Wunderground v.1.15,2013-10-07 23:32:00,
2013-10-07 18:33:00,81.4,43.2,29.95,East,93,1.0,2.0,26,0.00,,,0.00,Wunderground v.1.15,2013-10-07 23:33:00,
2013-10-07 18:34:00,81.4,44.2,29.95,East,93,1.0,2.0,27,0.00,,,0.00,Wunderground v.1.15,2013-10-07 23:34:00,
2013-10-07 18:35:00,81.4,44.2,29.95,East,93,1.0,2.0,27,0.00,,,0.00,Wunderground v.1.15,2013-10-07 23:35:00,
2013-10-07 18:37:00,81.4,44.2,29.95,East,93,0.0,2.0,27,0.00,,,0.00,Wunderground v.1.15,2013-10-07 23:37:00,
2013-10-07 18:40:00,81.2,45.0,29.95,East,93,0.0,0.0,28,0.00,,,0.00,Wunderground v.1.15,2013-10-07 23:40:00,
2013-10-07 18:44:00,81.2,44.0,29.95,East,93,0.0,0.0,27,0.00,,,0.00,Wunderground v.1.15,2013-10-07 23:44:00,
2013-10-07 18:45:00,81.1,44.9,29.95,East,93,0.0,0.0,28,0.00,,,0.00,Wunderground v.1.15,2013-10-07 23:45:00,
2013-10-07 18:46:00,81.1,44.9,29.95,East,93,0.0,0.0,28,0.00,,,0.00,Wunderground v.1.15,2013-10-07 23:46:00,
2013-10-07 18:47:00,80.9,44.7,29.95,East,93,0.0,0.0,28,0.00,,,0.00,Wunderground v.1.15,2013-10-07 23:47:00,
2013-10-07 18:51:00,80.7,44.6,29.95,East,93,0.0,1.0,28,0.00,,,0.00,Wunderground v.1.15,2013-10-07 23:51:00,
2013-10-07 18:53:00,80.3,45.1,29.95,East,93,1.0,1.0,29,0.00,,,0.00,Wunderground v.1.15,2013-10-07 23:53:00,
2013-10-07 18:54:00,80.3,45.1,29.95,East,93,1.0,1.0,29,0.00,,,0.00,Wunderground v.1.15,2013-10-07 23:54:00,
2013-10-07 18:56:00,79.9,44.8,29.95,East,93,1.0,1.0,29,0.00,,,0.00,Wunderground v.1.15,2013-10-07 23:56:00,
2013-10-07 18:57:00,79.9,45.7,29.95,East,93,1.0,1.0,30,0.00,,,0.00,Wunderground v.1.15,2013-10-07 23:57:00,
2013-10-07 18:58:00,79.8,44.7,29.95,East,93,1.0,1.0,29,0.00,,,0.00,Wunderground v.1.15,2013-10-07 23:58:00,
2013-10-07 19:02:00,79.4,45.3,29.95,East,93,0.0,1.0,30,0.00,,,0.00,Wunderground v.1.15,2013-10-08 00:02:00,
2013-10-07 19:04:00,79.0,44.0,29.95,East,93,0.0,2.0,29,0.00,,,0.00,Wunderground v.1.15,2013-10-08 00:04:00,
2013-10-07 19:05:00,78.8,44.7,29.95,East,93,0.0,2.0,30,0.00,,,0.00,Wunderground v.1.15,2013-10-08 00:05:00,
2013-10-07 19:07:00,78.8,45.6,29.95,East,93,1.0,2.0,31,0.00,,,0.00,Wunderground v.1.15,2013-10-08 00:07:00,
2013-10-07 19:10:00,78.5,45.3,29.95,East,93,1.0,1.0,31,0.00,,,0.00,Wunderground v.1.15,2013-10-08 00:10:00,
2013-10-07 19:11:00,78.5,45.3,29.95,East,93,1.0,1.0,31,0.00,,,0.00,Wunderground v.1.15,2013-10-08 00:11:00,
2013-10-07 19:12:00,78.3,45.2,29.95,East,93,1.0,1.0,31,0.00,,,0.00,Wunderground v.1.15,2013-10-08 00:12:00,
2013-10-07 19:17:00,77.9,45.7,29.95,East,93,0.0,1.0,32,0.00,,,0.00,Wunderground v.1.15,2013-10-08 00:17:00,
2013-10-07 19:20:00,77.7,44.6,29.95,East,93,0.0,0.0,31,0.00,,,0.00,Wunderground v.1.15,2013-10-08 00:20:00,
2013-10-07 19:21:00,77.7,44.6,29.95,East,93,0.0,0.0,31,0.00,,,0.00,Wunderground v.1.15,2013-10-08 00:21:00,
2013-10-07 19:23:00,77.6,44.6,29.95,East,93,0.0,0.0,31,0.00,,,0.00,Wunderground v.1.15,2013-10-08 00:23:00,
2013-10-07 19:27:00,77.4,44.4,29.95,East,93,0.0,1.0,31,0.00,,,0.00,Wunderground v.1.15,2013-10-08 00:27:00,
2013-10-07 19:30:00,77.4,44.4,29.95,East,93,0.0,0.0,31,0.00,,,0.00,Wunderground v.1.15,2013-10-08 00:30:00,
2013-10-07 19:31:00,77.4,44.4,29.95,East,93,0.0,0.0,31,0.00,,,0.00,Wunderground v.1.15,2013-10-08 00:31:00,
2013-10-07 19:34:00,76.8,43.9,29.95,East,93,0.0,0.0,31,0.00,,,0.00,Wunderground v.1.15,2013-10-08 00:34:00,
2013-10-07 19:36:00,76.5,43.6,29.95,East,93,0.0,0.0,31,0.00,,,0.00,Wunderground v.1.15,2013-10-08 00:36:00,
2013-10-07 19:40:00,76.5,43.6,29.95,East,93,0.0,1.0,31,0.00,,,0.00,Wunderground v.1.15,2013-10-08 00:40:00,
2013-10-07 19:41:00,76.1,44.1,29.95,East,93,0.0,1.0,32,0.00,,,0.00,Wunderground v.1.15,2013-10-08 00:41:00,
2013-10-07 19:43:00,76.0,44.0,29.95,East,93,0.0,1.0,32,0.00,,,0.00,Wunderground v.1.15,2013-10-08 00:43:00,
2013-10-07 19:44:00,75.8,43.8,29.95,East,93,0.0,1.0,32,0.00,,,0.00,Wunderground v.1.15,2013-10-08 00:44:00,
2013-10-07 19:47:00,75.6,44.5,29.96,East,93,0.0,1.0,33,0.00,,,0.00,Wunderground v.1.15,2013-10-08 00:47:00,
2013-10-07 19:50:00,75.3,44.2,29.96,East,93,0.0,2.0,33,0.00,,,0.00,Wunderground v.1.15,2013-10-08 00:50:00,
2013-10-07 19:51:00,75.3,44.2,29.96,East,93,0.0,2.0,33,0.00,,,0.00,Wunderground v.1.15,2013-10-08 00:51:00,
2013-10-07 19:52:00,75.3,45.7,29.96,East,93,0.0,2.0,35,0.00,,,0.00,Wunderground v.1.15,2013-10-08 00:52:00,
2013-10-07 19:53:00,75.3,45.7,29.96,East,93,0.0,2.0,35,0.00,,,0.00,Wunderground v.1.15,2013-10-08 00:53:00,
2013-10-07 19:55:00,75.3,45.7,29.96,East,93,0.0,2.0,35,0.00,,,0.00,Wunderground v.1.15,2013-10-08 00:55:00,
2013-10-07 19:56:00,75.3,45.7,29.96,East,93,0.0,2.0,35,0.00,,,0.00,Wunderground v.1.15,2013-10-08 00:56:00,
2013-10-07 19:57:00,75.3,45.7,29.96,East,93,0.0,2.0,35,0.00,,,0.00,Wunderground v.1.15,2013-10-08 00:57:00,
2013-10-07 19:58:00,75.3,45.7,29.96,East,93,0.0,2.0,35,0.00,,,0.00,Wunderground v.1.15,2013-10-08 00:58:00,
2013-10-07 20:01:00,75.3,45.7,29.96,East,93,0.0,0.0,35,0.00,,,0.00,Wunderground v.1.15,2013-10-08 01:01:00,
2013-10-07 20:02:00,75.3,45.7,29.96,East,93,0.0,0.0,35,0.00,,,0.00,Wunderground v.1.15,2013-10-08 01:02:00,
2013-10-07 20:03:00,75.3,45.7,29.96,East,93,0.0,0.0,35,0.00,,,0.00,Wunderground v.1.15,2013-10-08 01:03:00,
2013-10-07 20:07:00,74.0,46.8,29.96,East,93,0.0,0.0,38,0.00,,,0.00,Wunderground v.1.15,2013-10-08 01:07:00,
2013-10-07 20:08:00,74.0,46.8,29.96,East,93,1.0,1.0,38,0.00,,,0.00,Wunderground v.1.15,2013-10-08 01:08:00,
2013-10-07 20:09:00,73.7,46.5,29.96,East,93,0.0,1.0,38,0.00,,,0.00,Wunderground v.1.15,2013-10-08 01:09:00,
2013-10-07 20:11:00,73.5,46.3,29.96,East,93,0.0,0.0,38,0.00,,,0.00,Wunderground v.1.15,2013-10-08 01:11:00,
2013-10-07 20:14:00,73.3,46.2,29.96,East,93,0.0,0.0,38,0.00,,,0.00,Wunderground v.1.15,2013-10-08 01:14:00,
2013-10-07 20:15:00,73.3,46.2,29.96,East,93,0.0,0.0,38,0.00,,,0.00,Wunderground v.1.15,2013-10-08 01:15:00,
2013-10-07 20:16:00,73.3,46.2,29.96,East,93,0.0,0.0,38,0.00,,,0.00,Wunderground v.1.15,2013-10-08 01:16:00,
2013-10-07 20:18:00,73.3,46.2,29.97,East,93,0.0,0.0,38,0.00,,,0.00,Wunderground v.1.15,2013-10-08 01:18:00,
2013-10-07 20:21:00,73.2,45.4,29.97,East,93,0.0,0.0,37,0.00,,,0.00,Wunderground v.1.15,2013-10-08 01:21:00,
2013-10-07 20:23:00,73.2,45.4,29.97,East,93,0.0,0.0,37,0.00,,,0.00,Wunderground v.1.15,2013-10-08 01:23:00,
2013-10-07 20:24:00,73.2,46.1,29.97,East,93,0.0,0.0,38,0.00,,,0.00,Wunderground v.1.15,2013-10-08 01:24:00,
2013-10-07 20:25:00,73.2,46.1,29.97,East,93,0.0,0.0,38,0.00,,,0.00,Wunderground v.1.15,2013-10-08 01:25:00,
2013-10-07 20:26:00,73.0,45.2,29.97,East,93,0.0,1.0,37,0.00,,,0.00,Wunderground v.1.15,2013-10-08 01:26:00,
2013-10-07 20:27:00,73.0,45.9,29.97,East,93,0.0,1.0,38,0.00,,,0.00,Wunderground v.1.15,2013-10-08 01:27:00,
2013-10-07 20:29:00,73.0,45.9,29.97,East,93,0.0,1.0,38,0.00,,,0.00,Wunderground v.1.15,2013-10-08 01:29:00,
2013-10-07 20:31:00,72.8,45.7,29.97,East,93,0.0,0.0,38,0.00,,,0.00,Wunderground v.1.15,2013-10-08 01:31:00,
2013-10-07 20:33:00,72.8,45.7,29.97,East,93,0.0,0.0,38,0.00,,,0.00,Wunderground v.1.15,2013-10-08 01:33:00,
2013-10-07 20:34:00,72.8,45.7,29.97,East,93,0.0,0.0,38,0.00,,,0.00,Wunderground v.1.15,2013-10-08 01:34:00,
2013-10-07 20:35:00,72.7,45.6,29.97,East,93,0.0,0.0,38,0.00,,,0.00,Wunderground v.1.15,2013-10-08 01:35:00,
2013-10-07 20:37:00,72.7,45.6,29.97,East,93,0.0,0.0,38,0.00,,,0.00,Wunderground v.1.15,2013-10-08 01:37:00,
2013-10-07 20:41:00,72.3,45.9,29.97,East,93,0.0,0.0,39,0.00,,,0.00,Wunderground v.1.15,2013-10-08 01:41:00,
2013-10-07 20:42:00,72.3,45.9,29.97,East,93,0.0,0.0,39,0.00,,,0.00,Wunderground v.1.15,2013-10-08 01:42:00,
2013-10-07 20:46:00,72.3,45.9,29.97,East,93,0.0,0.0,39,0.00,,,0.00,Wunderground v.1.15,2013-10-08 01:46:00,
2013-10-07 20:47:00,72.3,45.9,29.97,East,93,0.0,0.0,39,0.00,,,0.00,Wunderground v.1.15,2013-10-08 01:47:00,
2013-10-07 20:49:00,72.3,45.9,29.97,East,93,0.0,0.0,39,0.00,,,0.00,Wunderground v.1.15,2013-10-08 01:49:00,
2013-10-07 20:51:00,72.3,45.9,29.97,East,93,0.0,0.0,39,0.00,,,0.00,Wunderground v.1.15,2013-10-08 01:51:00,
2013-10-07 20:53:00,72.3,45.9,29.97,East,93,0.0,0.0,39,0.00,,,0.00,Wunderground v.1.15,2013-10-08 01:53:00,
2013-10-07 20:57:00,71.8,45.5,29.97,East,93,0.0,2.0,39,0.00,,,0.00,Wunderground v.1.15,2013-10-08 01:57:00,
2013-10-07 20:58:00,71.8,45.5,29.97,East,93,0.0,2.0,39,0.00,,,0.00,Wunderground v.1.15,2013-10-08 01:58:00,
2013-10-07 21:01:00,71.6,46.6,29.97,East,93,0.0,0.0,41,0.00,,,0.00,Wunderground v.1.15,2013-10-08 02:01:00,
2013-10-07 21:03:00,71.6,46.6,29.98,East,93,0.0,0.0,41,0.00,,,0.00,Wunderground v.1.15,2013-10-08 02:03:00,
2013-10-07 21:05:00,71.6,46.6,29.98,East,93,0.0,0.0,41,0.00,,,0.00,Wunderground v.1.15,2013-10-08 02:05:00,
2013-10-07 21:06:00,71.6,46.6,29.98,East,93,0.0,0.0,41,0.00,,,0.00,Wunderground v.1.15,2013-10-08 02:06:00,
2013-10-07 21:11:00,71.3,44.4,29.98,East,93,0.0,0.0,38,0.00,,,0.00,Wunderground v.1.15,2013-10-08 02:11:00,
2013-10-07 21:13:00,71.5,45.2,29.98,East,93,0.0,0.0,39,0.00,,,0.00,Wunderground v.1.15,2013-10-08 02:13:00,
2013-10-07 21:17:00,71.5,45.9,29.98,East,93,0.0,0.0,40,0.00,,,0.00,Wunderground v.1.15,2013-10-08 02:17:00,
2013-10-07 21:18:00,71.3,45.7,29.98,East,93,0.0,0.0,40,0.00,,,0.00,Wunderground v.1.15,2013-10-08 02:18:00,
2013-10-07 21:21:00,71.3,46.4,29.98,East,93,0.0,0.0,41,0.00,,,0.00,Wunderground v.1.15,2013-10-08 02:21:00,
2013-10-07 21:23:00,70.9,46.7,29.98,East,93,0.0,0.0,42,0.00,,,0.00,Wunderground v.1.15,2013-10-08 02:23:00,
2013-10-07 21:24:00,70.9,46.7,29.98,East,93,0.0,0.0,42,0.00,,,0.00,Wunderground v.1.15,2013-10-08 02:24:00,
2013-10-07 21:26:00,70.9,45.4,29.98,East,93,0.0,0.0,40,0.00,,,0.00,Wunderground v.1.15,2013-10-08 02:26:00,
2013-10-07 21:27:00,70.8,45.9,29.98,East,93,0.0,0.0,41,0.00,,,0.00,Wunderground v.1.15,2013-10-08 02:27:00,
2013-10-07 21:28:00,70.6,45.1,29.98,East,93,0.0,0.0,40,0.00,,,0.00,Wunderground v.1.15,2013-10-08 02:28:00,
2013-10-07 21:31:00,70.6,45.1,29.98,East,93,0.0,0.0,40,0.00,,,0.00,Wunderground v.1.15,2013-10-08 02:31:00,
2013-10-07 21:32:00,70.6,45.1,29.98,East,93,0.0,0.0,40,0.00,,,0.00,Wunderground v.1.15,2013-10-08 02:32:00,
2013-10-07 21:33:00,70.6,45.1,29.98,East,93,0.0,0.0,40,0.00,,,0.00,Wunderground v.1.15,2013-10-08 02:33:00,
2013-10-07 21:35:00,70.6,45.1,29.98,East,93,0.0,0.0,40,0.00,,,0.00,Wunderground v.1.15,2013-10-08 02:35:00,
2013-10-07 21:37:00,70.6,45.1,29.98,East,93,0.0,0.0,40,0.00,,,0.00,Wunderground v.1.15,2013-10-08 02:37:00,
2013-10-07 21:38:00,70.6,45.1,29.98,East,93,0.0,0.0,40,0.00,,,0.00,Wunderground v.1.15,2013-10-08 02:38:00,
2013-10-07 21:41:00,70.4,44.9,29.98,East,93,0.0,0.0,40,0.00,,,0.00,Wunderground v.1.15,2013-10-08 02:41:00,
2013-10-07 21:43:00,70.4,44.9,29.98,East,93,0.0,0.0,40,0.00,,,0.00,Wunderground v.1.15,2013-10-08 02:43:00,
2013-10-07 21:46:00,70.4,46.8,29.98,East,93,0.0,0.0,43,0.00,,,0.00,Wunderground v.1.15,2013-10-08 02:46:00,
2013-10-07 21:47:00,70.4,46.8,29.99,East,93,0.0,0.0,43,0.00,,,0.00,Wunderground v.1.15,2013-10-08 02:47:00,
2013-10-07 21:48:00,70.4,46.8,29.99,East,93,0.0,0.0,43,0.00,,,0.00,Wunderground v.1.15,2013-10-08 02:48:00,
2013-10-07 21:51:00,69.8,46.3,29.99,East,93,0.0,0.0,43,0.00,,,0.00,Wunderground v.1.15,2013-10-08 02:51:00,
2013-10-07 21:52:00,69.8,46.3,29.99,East,93,0.0,0.0,43,0.00,,,0.00,Wunderground v.1.15,2013-10-08 02:52:00,
2013-10-07 21:55:00,69.6,46.1,29.99,East,93,0.0,0.0,43,0.00,,,0.00,Wunderground v.1.15,2013-10-08 02:55:00,
2013-10-07 21:56:00,69.6,46.1,29.99,East,93,0.0,0.0,43,0.00,,,0.00,Wunderground v.1.15,2013-10-08 02:56:00,
2013-10-07 21:57:00,69.4,45.9,29.99,East,93,0.0,0.0,43,0.00,,,0.00,Wunderground v.1.15,2013-10-08 02:57:00,
2013-10-07 21:58:00,69.4,45.9,29.99,East,93,0.0,0.0,43,0.00,,,0.00,Wunderground v.1.15,2013-10-08 02:58:00,
2013-10-07 22:01:00,69.3,46.4,29.99,East,93,0.0,0.0,44,0.00,,,0.00,Wunderground v.1.15,2013-10-08 03:01:00,
2013-10-07 22:02:00,69.3,47.0,29.99,East,93,0.0,0.0,45,0.00,,,0.00,Wunderground v.1.15,2013-10-08 03:02:00,
2013-10-07 22:03:00,69.3,47.0,29.99,East,93,0.0,0.0,45,0.00,,,0.00,Wunderground v.1.15,2013-10-08 03:03:00,
2013-10-07 22:05:00,69.3,47.0,29.99,East,93,0.0,0.0,45,0.00,,,0.00,Wunderground v.1.15,2013-10-08 03:05:00,
2013-10-07 22:11:00,68.6,46.4,29.99,East,93,0.0,0.0,45,0.00,,,0.00,Wunderground v.1.15,2013-10-08 03:11:00,
2013-10-07 22:12:00,68.6,46.4,29.99,East,93,0.0,0.0,45,0.00,,,0.00,Wunderground v.1.15,2013-10-08 03:12:00,
2013-10-07 22:13:00,68.4,46.8,29.99,East,93,0.0,0.0,46,0.00,,,0.00,Wunderground v.1.15,2013-10-08 03:13:00,
2013-10-07 22:16:00,68.1,46.5,29.99,East,93,0.0,0.0,46,0.00,,,0.00,Wunderground v.1.15,2013-10-08 03:16:00,
2013-10-07 22:18:00,68.1,47.1,29.99,East,93,0.0,0.0,47,0.00,,,0.00,Wunderground v.1.15,2013-10-08 03:18:00,
2013-10-07 22:21:00,67.9,46.9,29.99,East,93,0.0,0.0,47,0.00,,,0.00,Wunderground v.1.15,2013-10-08 03:21:00,
2013-10-07 22:22:00,67.8,46.3,29.99,East,93,0.0,0.0,46,0.00,,,0.00,Wunderground v.1.15,2013-10-08 03:22:00,
2013-10-07 22:26:00,67.8,47.4,29.99,East,93,0.0,0.0,48,0.00,,,0.00,Wunderground v.1.15,2013-10-08 03:26:00,
2013-10-07 22:27:00,67.8,47.4,29.99,East,93,0.0,0.0,48,0.00,,,0.00,Wunderground v.1.15,2013-10-08 03:27:00,
2013-10-07 22:28:00,67.8,47.4,29.99,East,93,0.0,0.0,48,0.00,,,0.00,Wunderground v.1.15,2013-10-08 03:28:00,
2013-10-07 22:33:00,67.4,47.6,29.99,East,93,0.0,0.0,49,0.00,,,0.00,Wunderground v.1.15,2013-10-08 03:33:00,
2013-10-07 22:34:00,67.4,47.6,29.99,East,93,0.0,0.0,49,0.00,,,0.00,Wunderground v.1.15,2013-10-08 03:34:00,
2013-10-07 22:37:00,67.3,46.9,29.99,East,93,0.0,0.0,48,0.00,,,0.00,Wunderground v.1.15,2013-10-08 03:37:00,
2013-10-07 22:38:00,67.3,46.9,29.99,East,93,0.0,0.0,48,0.00,,,0.00,Wunderground v.1.15,2013-10-08 03:38:00,
2013-10-07 22:41:00,67.3,46.4,29.99,East,93,0.0,0.0,47,0.00,,,0.00,Wunderground v.1.15,2013-10-08 03:41:00,
2013-10-07 22:44:00,67.3,46.4,29.99,East,93,0.0,0.0,47,0.00,,,0.00,Wunderground v.1.15,2013-10-08 03:44:00,
2013-10-07 22:45:00,67.3,45.8,29.99,East,93,0.0,0.0,46,0.00,,,0.00,Wunderground v.1.15,2013-10-08 03:45:00,
2013-10-07 22:46:00,67.3,45.8,29.99,East,93,0.0,0.0,46,0.00,,,0.00,Wunderground v.1.15,2013-10-08 03:46:00,
2013-10-07 22:47:00,67.4,47.0,29.99,East,93,0.0,0.0,48,0.00,,,0.00,Wunderground v.1.15,2013-10-08 03:47:00,
2013-10-07 22:51:00,67.3,46.4,29.99,East,93,0.0,0.0,47,0.00,,,0.00,Wunderground v.1.15,2013-10-08 03:51:00,
2013-10-07 22:52:00,67.3,46.4,29.99,East,93,0.0,0.0,47,0.00,,,0.00,Wunderground v.1.15,2013-10-08 03:52:00,
2013-10-07 22:53:00,67.3,46.4,29.99,East,93,0.0,0.0,47,0.00,,,0.00,Wunderground v.1.15,2013-10-08 03:53:00,
2013-10-07 22:56:00,67.1,46.7,29.99,East,93,0.0,0.0,48,0.00,,,0.00,Wunderground v.1.15,2013-10-08 03:56:00,
2013-10-07 22:57:00,67.1,46.7,29.99,East,93,0.0,0.0,48,0.00,,,0.00,Wunderground v.1.15,2013-10-08 03:57:00,
2013-10-07 23:01:00,66.9,46.6,29.99,East,93,0.0,0.0,48,0.00,,,0.00,Wunderground v.1.15,2013-10-08 04:01:00,
2013-10-07 23:02:00,66.9,46.6,29.99,East,93,0.0,0.0,48,0.00,,,0.00,Wunderground v.1.15,2013-10-08 04:02:00,
2013-10-07 23:03:00,66.8,46.5,29.99,East,93,0.0,0.0,48,0.00,,,0.00,Wunderground v.1.15,2013-10-08 04:03:00,
2013-10-07 23:04:00,66.8,46.5,29.99,East,93,0.0,0.0,48,0.00,,,0.00,Wunderground v.1.15,2013-10-08 04:04:00,
2013-10-07 23:05:00,66.8,46.5,29.99,East,93,0.0,0.0,48,0.00,,,0.00,Wunderground v.1.15,2013-10-08 04:05:00,
2013-10-07 23:06:00,66.8,46.5,29.99,East,93,0.0,0.0,48,0.00,,,0.00,Wunderground v.1.15,2013-10-08 04:06:00,
2013-10-07 23:07:00,66.6,46.8,29.99,East,93,0.0,0.0,49,0.00,,,0.00,Wunderground v.1.15,2013-10-08 04:07:00,
2013-10-07 23:10:00,66.6,46.3,29.99,East,93,0.0,0.0,48,0.00,,,0.00,Wunderground v.1.15,2013-10-08 04:10:00,
2013-10-07 23:11:00,66.6,46.3,29.99,East,93,0.0,0.0,48,0.00,,,0.00,Wunderground v.1.15,2013-10-08 04:11:00,
2013-10-07 23:12:00,66.6,46.3,29.99,East,93,0.0,0.0,48,0.00,,,0.00,Wunderground v.1.15,2013-10-08 04:12:00,
2013-10-07 23:16:00,66.6,46.3,29.99,East,93,0.0,0.0,48,0.00,,,0.00,Wunderground v.1.15,2013-10-08 04:16:00,
2013-10-07 23:17:00,66.6,46.3,29.99,East,93,0.0,0.0,48,0.00,,,0.00,Wunderground v.1.15,2013-10-08 04:17:00,
2013-10-07 23:21:00,66.6,46.8,29.99,East,93,0.0,0.0,49,0.00,,,0.00,Wunderground v.1.15,2013-10-08 04:21:00,
2013-10-07 23:22:00,66.6,46.8,29.99,East,93,0.0,0.0,49,0.00,,,0.00,Wunderground v.1.15,2013-10-08 04:22:00,
2013-10-07 23:23:00,66.4,46.7,29.99,East,93,0.0,0.0,49,0.00,,,0.00,Wunderground v.1.15,2013-10-08 04:23:00,
2013-10-07 23:24:00,66.4,46.7,29.99,East,93,0.0,0.0,49,0.00,,,0.00,Wunderground v.1.15,2013-10-08 04:24:00,
2013-10-07 23:25:00,66.4,46.7,29.99,East,93,0.0,0.0,49,0.00,,,0.00,Wunderground v.1.15,2013-10-08 04:25:00,
2013-10-07 23:26:00,66.4,46.7,29.99,East,93,0.0,0.0,49,0.00,,,0.00,Wunderground v.1.15,2013-10-08 04:26:00,
2013-10-07 23:27:00,66.3,46.6,29.99,East,93,0.0,0.0,49,0.00,,,0.00,Wunderground v.1.15,2013-10-08 04:27:00,
2013-10-07 23:31:00,66.4,45.5,29.99,East,93,0.0,0.0,47,0.00,,,0.00,Wunderground v.1.15,2013-10-08 04:31:00,
2013-10-07 23:32:00,66.4,45.5,29.99,East,93,0.0,0.0,47,0.00,,,0.00,Wunderground v.1.15,2013-10-08 04:32:00,
2013-10-07 23:34:00,66.3,45.5,29.99,East,93,0.0,0.0,47,0.00,,,0.00,Wunderground v.1.15,2013-10-08 04:34:00,
2013-10-07 23:35:00,66.3,46.6,29.99,East,93,0.0,0.0,49,0.00,,,0.00,Wunderground v.1.15,2013-10-08 04:35:00,
2013-10-07 23:36:00,66.3,46.6,29.99,East,93,0.0,0.0,49,0.00,,,0.00,Wunderground v.1.15,2013-10-08 04:36:00,
2013-10-07 23:37:00,66.1,45.8,29.99,East,93,0.0,0.0,48,0.00,,,0.00,Wunderground v.1.15,2013-10-08 04:37:00,
2013-10-07 23:38:00,66.1,46.4,29.99,East,93,0.0,0.0,49,0.00,,,0.00,Wunderground v.1.15,2013-10-08 04:38:00,
2013-10-07 23:40:00,66.1,46.4,29.99,East,93,0.0,0.0,49,0.00,,,0.00,Wunderground v.1.15,2013-10-08 04:40:00,
2013-10-07 23:41:00,66.1,46.4,29.99,East,93,0.0,0.0,49,0.00,,,0.00,Wunderground v.1.15,2013-10-08 04:41:00,
2013-10-07 23:42:00,66.0,46.3,29.99,East,93,0.0,0.0,49,0.00,,,0.00,Wunderground v.1.15,2013-10-08 04:42:00,
2013-10-07 23:46:00,65.8,46.1,29.99,East,93,0.0,0.0,49,0.00,,,0.00,Wunderground v.1.15,2013-10-08 04:46:00,
2013-10-07 23:47:00,65.8,46.1,29.99,East,93,0.0,0.0,49,0.00,,,0.00,Wunderground v.1.15,2013-10-08 04:47:00,
2013-10-07 23:48:00,65.8,46.1,29.99,East,93,0.0,0.0,49,0.00,,,0.00,Wunderground v.1.15,2013-10-08 04:48:00,
2013-10-07 23:50:00,65.8,46.6,29.99,East,93,0.0,0.0,50,0.00,,,0.00,Wunderground v.1.15,2013-10-08 04:50:00,
2013-10-07 23:52:00,65.8,46.1,29.99,East,93,0.0,0.0,49,0.00,,,0.00,Wunderground v.1.15,2013-10-08 04:52:00,
2013-10-07 23:53:00,65.8,46.6,29.99,East,93,0.0,0.0,50,0.00,,,0.00,Wunderground v.1.15,2013-10-08 04:53:00,
2013-10-07 23:54:00,65.8,46.6,29.99,East,93,0.0,0.0,50,0.00,,,0.00,Wunderground v.1.15,2013-10-08 04:54:00,
2013-10-07 23:57:00,65.6,45.9,29.99,East,93,0.0,0.0,49,0.00,,,0.00,Wunderground v.1.15,2013-10-08 04:57:00,